| time (UTC) | temp F | wind direction | speed MPH | gust MPH | rain 1hr in | rain 24hr in | rain mn in | humidity % | barometer mb |
| 20260902112905 | 88 | 42 | 2.0 | 7.0 | 0.00 | 0.00 | 0.00 | 51 | 1016.4 |
| 20260902112804 | 88 | 19 | 5.0 | 7.0 | 0.00 | 0.00 | 0.00 | 50 | 1016.4 |
| 20260902112505 | 88 | 281 | 1.0 | 5.0 | 0.00 | 0.00 | 0.00 | 50 | 1016.5 |
| 20260902112408 | 88 | 213 | 2.0 | 5.0 | 0.00 | 0.00 | 0.00 | 50 | 1016.4 |
| 20260902112306 | 88 | 186 | 1.0 | 7.0 | 0.00 | 0.00 | 0.00 | 51 | 1016.5 |
| 20260902112204 | 88 | 186 | 3.0 | 7.0 | 0.00 | 0.00 | 0.00 | 50 | 1016.5 |
| 20260902112107 | 88 | 225 | 3.0 | 7.0 | 0.00 | 0.00 | 0.00 | 50 | 1016.5 |
| 20260902112006 | 88 | 80 | 0.0 | 7.0 | 0.00 | 0.00 | 0.00 | 51 | 1016.5 |
| 20260902111904 | 88 | 80 | 1.0 | 7.0 | 0.00 | 0.00 | 0.00 | 51 | 1016.5 |
| 20260902111808 | 88 | 80 | 1.0 | 9.0 | 0.00 | 0.00 | 0.00 | 51 | 1016.6 |
| 20260902111704 | 88 | 128 | 2.0 | 9.0 | 0.00 | 0.00 | 0.00 | 51 | 1016.5 |
| 20260902111507 | 88 | 333 | 2.0 | 9.0 | 0.00 | 0.00 | 0.00 | 50 | 1016.6 |
| 20260902111405 | 88 | 342 | 2.0 | 9.0 | 0.00 | 0.00 | 0.00 | 51 | 1016.7 |
| 20260902111304 | 88 | 348 | 4.0 | 9.0 | 0.00 | 0.00 | 0.00 | 51 | 1016.7 |
| 20260902111104 | 88 | 17 | 5.0 | 9.0 | 0.00 | 0.00 | 0.00 | 49 | 1016.7 |
| 20260902110906 | 88 | 42 | 5.0 | 9.0 | 0.00 | 0.00 | 0.00 | 51 | 1016.7 |
| 20260902110805 | 88 | 34 | 7.0 | 9.0 | 0.00 | 0.00 | 0.00 | 51 | 1016.8 |
| 20260902110705 | 88 | 12 | 5.0 | 8.0 | 0.00 | 0.00 | 0.00 | 51 | 1016.7 |
| 20260902110607 | 88 | 355 | 8.0 | 8.0 | 0.00 | 0.00 | 0.00 | 51 | 1016.8 |
| 20260902110504 | 88 | 346 | 3.0 | 8.0 | 0.00 | 0.00 | 0.00 | 52 | 1016.8 |
| 20260902110406 | 88 | 360 | 5.0 | 7.0 | 0.00 | 0.00 | 0.00 | 52 | 1016.8 |
| 20260902110204 | 88 | 265 | 2.0 | 8.0 | 0.00 | 0.00 | 0.00 | 52 | 1016.8 |
| 20260902110108 | 87 | 292 | 4.0 | 8.0 | 0.00 | 0.00 | 0.00 | 52 | 1016.8 |
| 20260902110012 | 87 | 296 | 3.0 | 8.0 | 0.00 | 0.00 | 0.00 | 52 | 1016.8 |
| 20260902105905 | 87 | 304 | 2.0 | 9.0 | 0.00 | 0.00 | 0.00 | 54 | 1016.8 |
| 20260902105804 | 87 | 304 | 4.0 | 9.0 | 0.00 | 0.00 | 0.00 | 54 | 1016.9 |
| 20260902105604 | 87 | 22 | 3.0 | 9.0 | 0.00 | 0.00 | 0.00 | 51 | 1016.9 |
| 20260902105507 | 87 | 41 | 2.0 | 9.0 | 0.00 | 0.00 | 0.00 | 50 | 1016.9 |
| 20260902105408 | 87 | 42 | 6.0 | 9.0 | 0.00 | 0.00 | 0.00 | 50 | 1016.8 |
| 20260902105306 | 87 | 49 | 5.0 | 9.0 | 0.00 | 0.00 | 0.00 | 51 | 1016.8 |
| 20260902105204 | 87 | 28 | 6.0 | 9.0 | 0.00 | 0.00 | 0.00 | 51 | 1016.8 |
| 20260902105107 | 87 | 49 | 4.0 | 9.0 | 0.00 | 0.00 | 0.00 | 50 | 1016.8 |
| 20260902105005 | 88 | 41 | 7.0 | 9.0 | 0.00 | 0.00 | 0.00 | 51 | 1016.8 |
| 20260902104905 | 88 | 46 | 8.0 | 9.0 | 0.00 | 0.00 | 0.00 | 51 | 1016.8 |
| 20260902104807 | 88 | 15 | 3.0 | 10.0 | 0.00 | 0.00 | 0.00 | 51 | 1016.9 |
| 20260902104704 | 88 | 9 | 4.0 | 10.0 | 0.00 | 0.00 | 0.00 | 53 | 1016.9 |
| 20260902104604 | 88 | 329 | 4.0 | 10.0 | 0.00 | 0.00 | 0.00 | 52 | 1016.9 |
| 20260902104507 | 88 | 335 | 2.0 | 10.0 | 0.00 | 0.00 | 0.00 | 54 | 1016.9 |
| 20260902104405 | 87 | 44 | 0.0 | 10.0 | 0.00 | 0.00 | 0.00 | 54 | 1016.9 |
| 20260902104207 | 87 | 44 | 4.0 | 10.0 | 0.00 | 0.00 | 0.00 | 53 | 1016.9 |
| 20260902104104 | 88 | 82 | 2.0 | 10.0 | 0.00 | 0.00 | 0.00 | 53 | 1016.9 |
| 20260902104006 | 88 | 19 | 1.0 | 10.0 | 0.00 | 0.00 | 0.00 | 55 | 1017.0 |
| 20260902103907 | 88 | 347 | 5.0 | 10.0 | 0.00 | 0.00 | 0.00 | 55 | 1017.0 |
| 20260902103804 | 87 | 19 | 8.0 | 10.0 | 0.00 | 0.00 | 0.00 | 53 | 1016.9 |
| 20260902103607 | 87 | 17 | 8.0 | 10.0 | 0.00 | 0.00 | 0.00 | 55 | 1017.0 |
| 20260902103504 | 87 | 15 | 8.0 | 10.0 | 0.00 | 0.00 | 0.00 | 54 | 1017.0 |
| 20260902103307 | 87 | 30 | 8.0 | 10.0 | 0.00 | 0.00 | 0.00 | 54 | 1017.1 |
| 20260902103205 | 87 | 336 | 7.0 | 9.0 | 0.00 | 0.00 | 0.00 | 54 | 1017.1 |
| 20260902103104 | 87 | 302 | 2.0 | 9.0 | 0.00 | 0.00 | 0.00 | 56 | 1017.1 |
| 20260902103008 | 87 | 22 | 5.0 | 9.0 | 0.00 | 0.00 | 0.00 | 55 | 1017.1 |
| 20260902102905 | 87 | 311 | 2.0 | 9.0 | 0.00 | 0.00 | 0.00 | 54 | 1017.2 |
| 20260902102803 | 87 | 281 | 3.0 | 9.0 | 0.00 | 0.00 | 0.00 | 56 | 1017.2 |
| 20260902102604 | 87 | 316 | 7.0 | 9.0 | 0.00 | 0.00 | 0.00 | 54 | 1017.2 |
| 20260902102504 | 87 | 331 | 4.0 | 9.0 | 0.00 | 0.00 | 0.00 | 55 | 1017.2 |
| 20260902102406 | 87 | 319 | 7.0 | 10.0 | 0.00 | 0.00 | 0.00 | 56 | 1017.2 |
| 20260902102107 | 87 | 10 | 0.0 | 10.0 | 0.00 | 0.00 | 0.00 | 54 | 1017.2 |
| 20260902102005 | 87 | 32 | 4.0 | 10.0 | 0.00 | 0.00 | 0.00 | 54 | 1017.2 |
| 20260902101905 | 87 | 45 | 6.0 | 10.0 | 0.00 | 0.00 | 0.00 | 55 | 1017.2 |
| 20260902101807 | 87 | 360 | 7.0 | 10.0 | 0.00 | 0.00 | 0.00 | 55 | 1017.3 |
| 20260902101703 | 87 | 355 | 6.0 | 10.0 | 0.00 | 0.00 | 0.00 | 55 | 1017.3 |
| 20260902101605 | 86 | 294 | 4.0 | 10.0 | 0.00 | 0.00 | 0.00 | 57 | 1017.3 |
| 20260902101405 | 86 | 360 | 5.0 | 10.0 | 0.00 | 0.00 | 0.00 | 56 | 1017.3 |
| 20260902101304 | 86 | 360 | 5.0 | 10.0 | 0.00 | 0.00 | 0.00 | 57 | 1017.2 |
| 20260902101207 | 86 | 340 | 9.0 | 9.0 | 0.00 | 0.00 | 0.00 | 58 | 1017.3 |
| 20260902101103 | 86 | 345 | 5.0 | 9.0 | 0.00 | 0.00 | 0.00 | 57 | 1017.2 |
| 20260902100907 | 86 | 333 | 7.0 | 9.0 | 0.00 | 0.00 | 0.00 | 58 | 1017.3 |
| 20260902100804 | 86 | 350 | 1.0 | 8.0 | 0.00 | 0.00 | 0.00 | 58 | 1017.3 |
| 20260902100607 | 86 | 252 | 1.0 | 9.0 | 0.00 | 0.00 | 0.00 | 59 | 1017.2 |
| 20260902100504 | 86 | 244 | 4.0 | 9.0 | 0.00 | 0.00 | 0.00 | 60 | 1017.3 |
| 20260902100307 | 86 | 298 | 2.0 | 9.0 | 0.00 | 0.00 | 0.00 | 60 | 1017.2 |
| 20260902100204 | 86 | 311 | 6.0 | 9.0 | 0.00 | 0.00 | 0.00 | 61 | 1017.3 |
| 20260902100119 | 85 | 302 | 4.0 | 9.0 | 0.00 | 0.00 | 0.00 | 59 | 1017.3 |
| 20260902100011 | 85 | 271 | 3.0 | 9.0 | 0.00 | 0.00 | 0.00 | 60 | 1017.3 |
| 20260902095803 | 85 | 340 | 3.0 | 9.0 | 0.00 | 0.00 | 0.00 | 60 | 1017.3 |
| 20260902095604 | 86 | 288 | 2.0 | 9.0 | 0.00 | 0.00 | 0.00 | 60 | 1017.3 |
| 20260902095407 | 86 | 256 | 6.0 | 9.0 | 0.00 | 0.00 | 0.00 | 61 | 1017.3 |
| 20260902095307 | 86 | 287 | 5.0 | 9.0 | 0.00 | 0.00 | 0.00 | 59 | 1017.4 |
| 20260902095205 | 86 | 269 | 3.0 | 9.0 | 0.00 | 0.00 | 0.00 | 60 | 1017.4 |
| 20260902095107 | 86 | 284 | 4.0 | 9.0 | 0.00 | 0.00 | 0.00 | 60 | 1017.4 |
| 20260902095005 | 86 | 286 | 4.0 | 10.0 | 0.00 | 0.00 | 0.00 | 61 | 1017.5 |
| 20260902094904 | 86 | 334 | 7.0 | 10.0 | 0.00 | 0.00 | 0.00 | 61 | 1017.4 |
| 20260902094807 | 85 | 263 | 4.0 | 10.0 | 0.00 | 0.00 | 0.00 | 64 | 1017.4 |
| 20260902094705 | 85 | 350 | 2.0 | 10.0 | 0.00 | 0.00 | 0.00 | 64 | 1017.4 |
| 20260902094605 | 85 | 29 | 7.0 | 10.0 | 0.00 | 0.00 | 0.00 | 63 | 1017.4 |
| 20260902094508 | 85 | 347 | 6.0 | 10.0 | 0.00 | 0.00 | 0.00 | 62 | 1017.4 |
| 20260902094404 | 85 | 300 | 2.0 | 10.0 | 0.00 | 0.00 | 0.00 | 62 | 1017.4 |
| 20260902094305 | 85 | 292 | 1.0 | 10.0 | 0.00 | 0.00 | 0.00 | 62 | 1017.4 |
| 20260902094206 | 85 | 292 | 1.0 | 10.0 | 0.00 | 0.00 | 0.00 | 63 | 1017.5 |
| 20260902094104 | 85 | 289 | 5.0 | 10.0 | 0.00 | 0.00 | 0.00 | 63 | 1017.4 |
| 20260902094005 | 85 | 313 | 4.0 | 9.0 | 0.00 | 0.00 | 0.00 | 63 | 1017.4 |
| 20260902093907 | 85 | 260 | 5.0 | 9.0 | 0.00 | 0.00 | 0.00 | 62 | 1017.4 |
| 20260902093803 | 85 | 259 | 4.0 | 9.0 | 0.00 | 0.00 | 0.00 | 62 | 1017.4 |
| 20260902093704 | 85 | 281 | 7.0 | 9.0 | 0.00 | 0.00 | 0.00 | 61 | 1017.4 |
| 20260902093607 | 85 | 317 | 3.0 | 9.0 | 0.00 | 0.00 | 0.00 | 62 | 1017.4 |
| 20260902093403 | 85 | 348 | 6.0 | 9.0 | 0.00 | 0.00 | 0.00 | 63 | 1017.5 |
| 20260902093205 | 85 | 338 | 9.0 | 10.0 | 0.00 | 0.00 | 0.00 | 63 | 1017.5 |
| 20260902093104 | 85 | 334 | 7.0 | 10.0 | 0.00 | 0.00 | 0.00 | 63 | 1017.5 |
| 20260902093008 | 85 | 284 | 3.0 | 10.0 | 0.00 | 0.00 | 0.00 | 63 | 1017.5 |
| 20260902092904 | 85 | 287 | 7.0 | 10.0 | 0.00 | 0.00 | 0.00 | 63 | 1017.5 |
| 20260902092804 | 85 | 337 | 6.0 | 10.0 | 0.00 | 0.00 | 0.00 | 63 | 1017.5 |
| 20260902092707 | 86 | 301 | 5.0 | 10.0 | 0.00 | 0.00 | 0.00 | 62 | 1017.5 |
| 20260902092605 | 86 | 267 | 5.0 | 10.0 | 0.00 | 0.00 | 0.00 | 63 | 1017.5 |
| 20260902092504 | 86 | 291 | 8.0 | 10.0 | 0.00 | 0.00 | 0.00 | 62 | 1017.5 |
| 20260902092407 | 86 | 355 | 9.0 | 10.0 | 0.00 | 0.00 | 0.00 | 61 | 1017.5 |
| 20260902092204 | 86 | 322 | 4.0 | 11.0 | 0.00 | 0.00 | 0.00 | 64 | 1017.5 |
| 20260902092107 | 86 | 360 | 6.0 | 11.0 | 0.00 | 0.00 | 0.00 | 64 | 1017.4 |
| 20260902092005 | 85 | 347 | 6.0 | 11.0 | 0.00 | 0.00 | 0.00 | 62 | 1017.5 |
| 20260902091905 | 85 | 360 | 7.0 | 11.0 | 0.00 | 0.00 | 0.00 | 63 | 1017.4 |
| 20260902091807 | 85 | 331 | 3.0 | 11.0 | 0.00 | 0.00 | 0.00 | 63 | 1017.5 |
| 20260902091705 | 85 | 351 | 4.0 | 11.0 | 0.00 | 0.00 | 0.00 | 63 | 1017.4 |
| 20260902091604 | 85 | 316 | 7.0 | 11.0 | 0.00 | 0.00 | 0.00 | 62 | 1017.4 |
| 20260902091508 | 85 | 331 | 4.0 | 11.0 | 0.00 | 0.00 | 0.00 | 62 | 1017.5 |
| 20260902091404 | 85 | 319 | 8.0 | 11.0 | 0.00 | 0.00 | 0.00 | 64 | 1017.5 |
| 20260902091304 | 85 | 297 | 5.0 | 11.0 | 0.00 | 0.00 | 0.00 | 63 | 1017.4 |
| 20260902091206 | 85 | 355 | 10.0 | 12.0 | 0.00 | 0.00 | 0.00 | 62 | 1017.4 |
| 20260902091105 | 85 | 349 | 6.0 | 12.0 | 0.00 | 0.00 | 0.00 | 63 | 1017.4 |
| 20260902091004 | 85 | 355 | 6.0 | 12.0 | 0.00 | 0.00 | 0.00 | 63 | 1017.4 |
| 20260902090908 | 85 | 355 | 4.0 | 12.0 | 0.00 | 0.00 | 0.00 | 62 | 1017.4 |
| 20260902090804 | 85 | 360 | 7.0 | 12.0 | 0.00 | 0.00 | 0.00 | 63 | 1017.4 |
| 20260902090703 | 84 | 355 | 8.0 | 12.0 | 0.00 | 0.00 | 0.00 | 63 | 1017.4 |
| 20260902090607 | 84 | 329 | 7.0 | 12.0 | 0.00 | 0.00 | 0.00 | 63 | 1017.4 |
| 20260902090404 | 84 | 290 | 8.0 | 12.0 | 0.00 | 0.00 | 0.00 | 63 | 1017.4 |
| 20260902090306 | 84 | 321 | 7.0 | 12.0 | 0.00 | 0.00 | 0.00 | 64 | 1017.4 |
| 20260902090205 | 84 | 5 | 7.0 | 12.0 | 0.00 | 0.00 | 0.00 | 64 | 1017.4 |
| 20260902090104 | 84 | 360 | 10.0 | 11.0 | 0.00 | 0.00 | 0.00 | 65 | 1017.4 |
| 20260902090011 | 83 | 355 | 7.0 | 11.0 | 0.00 | 0.00 | 0.00 | 63 | 1017.4 |
| 20260902085904 | 83 | 339 | 4.0 | 11.0 | 0.00 | 0.00 | 0.00 | 63 | 1017.4 |
| 20260902085804 | 83 | 279 | 2.0 | 11.0 | 0.00 | 0.00 | 0.00 | 63 | 1017.4 |
| 20260902085706 | 83 | 286 | 4.0 | 11.0 | 0.00 | 0.00 | 0.00 | 64 | 1017.4 |
| 20260902085504 | 83 | 290 | 5.0 | 11.0 | 0.00 | 0.00 | 0.00 | 64 | 1017.4 |
| 20260902085407 | 83 | 319 | 6.0 | 11.0 | 0.00 | 0.00 | 0.00 | 65 | 1017.3 |
| 20260902085306 | 83 | 330 | 7.0 | 11.0 | 0.00 | 0.00 | 0.00 | 64 | 1017.4 |
| 20260902085005 | 82 | 315 | 5.0 | 9.0 | 0.00 | 0.00 | 0.00 | 64 | 1017.4 |
| 20260902084905 | 82 | 293 | 2.0 | 9.0 | 0.00 | 0.00 | 0.00 | 64 | 1017.4 |
| 20260902084807 | 82 | 293 | 5.0 | 9.0 | 0.00 | 0.00 | 0.00 | 64 | 1017.4 |
| 20260902084704 | 82 | 277 | 3.0 | 10.0 | 0.00 | 0.00 | 0.00 | 62 | 1017.4 |
| 20260902084604 | 83 | 269 | 4.0 | 10.0 | 0.00 | 0.00 | 0.00 | 62 | 1017.4 |
| 20260902084508 | 83 | 272 | 6.0 | 10.0 | 0.00 | 0.00 | 0.00 | 63 | 1017.3 |
| 20260902084404 | 83 | 298 | 3.0 | 10.0 | 0.00 | 0.00 | 0.00 | 64 | 1017.3 |
| 20260902084304 | 83 | 298 | 4.0 | 10.0 | 0.00 | 0.00 | 0.00 | 65 | 1017.3 |
| 20260902084208 | 82 | 334 | 6.0 | 10.0 | 0.00 | 0.00 | 0.00 | 66 | 1017.3 |
| 20260902084105 | 82 | 319 | 8.0 | 10.0 | 0.00 | 0.00 | 0.00 | 65 | 1017.3 |
| 20260902084006 | 82 | 317 | 5.0 | 10.0 | 0.00 | 0.00 | 0.00 | 63 | 1017.3 |
| 20260902083907 | 82 | 270 | 6.0 | 10.0 | 0.00 | 0.00 | 0.00 | 63 | 1017.3 |
| 20260902083704 | 82 | 275 | 7.0 | 9.0 | 0.00 | 0.00 | 0.00 | 63 | 1017.3 |
| 20260902083607 | 82 | 290 | 3.0 | 9.0 | 0.00 | 0.00 | 0.00 | 63 | 1017.3 |
| 20260902083403 | 82 | 324 | 6.0 | 9.0 | 0.00 | 0.00 | 0.00 | 63 | 1017.3 |
| 20260902083307 | 82 | 300 | 3.0 | 9.0 | 0.00 | 0.00 | 0.00 | 64 | 1017.3 |
| 20260902083203 | 82 | 317 | 7.0 | 9.0 | 0.00 | 0.00 | 0.00 | 63 | 1017.3 |
| 20260902083008 | 82 | 300 | 7.0 | 9.0 | 0.00 | 0.00 | 0.00 | 63 | 1017.3 |
| 20260902082804 | 82 | 300 | 7.0 | 11.0 | 0.00 | 0.00 | 0.00 | 64 | 1017.2 |
| 20260902082707 | 82 | 301 | 5.0 | 11.0 | 0.00 | 0.00 | 0.00 | 64 | 1017.2 |
| 20260902082605 | 81 | 322 | 6.0 | 11.0 | 0.00 | 0.00 | 0.00 | 64 | 1017.2 |
| 20260902082504 | 81 | 318 | 3.0 | 11.0 | 0.00 | 0.00 | 0.00 | 64 | 1017.2 |
| 20260902082407 | 81 | 317 | 5.0 | 11.0 | 0.00 | 0.00 | 0.00 | 63 | 1017.2 |
| 20260902082309 | 81 | 279 | 4.0 | 11.0 | 0.00 | 0.00 | 0.00 | 63 | 1017.2 |
| 20260902082204 | 81 | 299 | 6.0 | 11.0 | 0.00 | 0.00 | 0.00 | 63 | 1017.2 |
| 20260902082107 | 81 | 316 | 4.0 | 11.0 | 0.00 | 0.00 | 0.00 | 63 | 1017.1 |
| 20260902082005 | 82 | 288 | 5.0 | 11.0 | 0.00 | 0.00 | 0.00 | 62 | 1017.1 |
| 20260902081905 | 82 | 281 | 11.0 | 11.0 | 0.00 | 0.00 | 0.00 | 63 | 1017.2 |
| 20260902081807 | 82 | 322 | 4.0 | 11.0 | 0.00 | 0.00 | 0.00 | 63 | 1017.1 |
| 20260902081705 | 82 | 298 | 9.0 | 11.0 | 0.00 | 0.00 | 0.00 | 63 | 1017.1 |
| 20260902081605 | 81 | 298 | 4.0 | 11.0 | 0.00 | 0.00 | 0.00 | 63 | 1017.2 |
| 20260902081506 | 81 | 315 | 9.0 | 11.0 | 0.00 | 0.00 | 0.00 | 63 | 1017.1 |
| 20260902081403 | 81 | 355 | 7.0 | 11.0 | 0.00 | 0.00 | 0.00 | 63 | 1017.1 |
| 20260902081304 | 81 | 328 | 3.0 | 11.0 | 0.00 | 0.00 | 0.00 | 63 | 1017.1 |
| 20260902081207 | 81 | 338 | 1.0 | 11.0 | 0.00 | 0.00 | 0.00 | 64 | 1017.1 |
| 20260902081103 | 81 | 300 | 7.0 | 11.0 | 0.00 | 0.00 | 0.00 | 64 | 1017.1 |
| 20260902081004 | 81 | 319 | 10.0 | 10.0 | 0.00 | 0.00 | 0.00 | 64 | 1017.1 |
| 20260902080907 | 81 | 319 | 5.0 | 10.0 | 0.00 | 0.00 | 0.00 | 64 | 1017.1 |
| 20260902080705 | 80 | 355 | 7.0 | 10.0 | 0.00 | 0.00 | 0.00 | 64 | 1017.1 |
| 20260902080607 | 80 | 348 | 7.0 | 10.0 | 0.00 | 0.00 | 0.00 | 64 | 1017.1 |
| 20260902080505 | 80 | 317 | 6.0 | 10.0 | 0.00 | 0.00 | 0.00 | 64 | 1017.1 |
| 20260902080404 | 80 | 321 | 5.0 | 10.0 | 0.00 | 0.00 | 0.00 | 63 | 1017.1 |
| 20260902080307 | 80 | 333 | 3.0 | 10.0 | 0.00 | 0.00 | 0.00 | 63 | 1017.1 |
| 20260902080120 | 80 | 281 | 3.0 | 10.0 | 0.00 | 0.00 | 0.00 | 64 | 1017.1 |
| 20260902080011 | 80 | 303 | 3.0 | 10.0 | 0.00 | 0.00 | 0.00 | 64 | 1017.1 |
| 20260902075904 | 80 | 338 | 7.0 | 10.0 | 0.00 | 0.00 | 0.00 | 63 | 1017.1 |
| 20260902075804 | 80 | 264 | 1.0 | 10.0 | 0.00 | 0.00 | 0.00 | 64 | 1017.1 |
| 20260902075706 | 80 | 312 | 5.0 | 10.0 | 0.00 | 0.00 | 0.00 | 64 | 1017.0 |
| 20260902075604 | 80 | 292 | 5.0 | 10.0 | 0.00 | 0.00 | 0.00 | 64 | 1017.0 |
| 20260902075408 | 80 | 321 | 6.0 | 10.0 | 0.00 | 0.00 | 0.00 | 64 | 1017.0 |
| 20260902075306 | 80 | 319 | 7.0 | 11.0 | 0.00 | 0.00 | 0.00 | 64 | 1017.0 |
| 20260902075205 | 80 | 331 | 6.0 | 11.0 | 0.00 | 0.00 | 0.00 | 64 | 1017.0 |
| 20260902075106 | 80 | 277 | 7.0 | 11.0 | 0.00 | 0.00 | 0.00 | 64 | 1017.0 |
| 20260902075004 | 79 | 278 | 6.0 | 11.0 | 0.00 | 0.00 | 0.00 | 64 | 1017.0 |
| 20260902074904 | 79 | 305 | 7.0 | 11.0 | 0.00 | 0.00 | 0.00 | 63 | 1017.0 |
| 20260902074604 | 79 | 282 | 4.0 | 11.0 | 0.00 | 0.00 | 0.00 | 61 | 1017.0 |
| 20260902074507 | 79 | 294 | 2.0 | 11.0 | 0.00 | 0.00 | 0.00 | 62 | 1017.0 |
| 20260902074404 | 79 | 334 | 5.0 | 11.0 | 0.00 | 0.00 | 0.00 | 63 | 1017.0 |
| 20260902074306 | 79 | 339 | 8.0 | 10.0 | 0.00 | 0.00 | 0.00 | 62 | 1017.0 |
| 20260902074221 | 79 | 288 | 3.0 | 10.0 | 0.00 | 0.00 | 0.00 | 62 | 1017.0 |
| 20260902074004 | 79 | 333 | 9.0 | 9.0 | 0.00 | 0.00 | 0.00 | 61 | 1016.9 |
| 20260902073904 | 79 | 295 | 7.0 | 9.0 | 0.00 | 0.00 | 0.00 | 61 | 1017.0 |
| 20260902073704 | 79 | 278 | 8.0 | 9.0 | 0.00 | 0.00 | 0.00 | 60 | 1017.0 |
| 20260902073604 | 79 | 286 | 6.0 | 9.0 | 0.00 | 0.00 | 0.00 | 60 | 1017.0 |
| 20260902073507 | 79 | 269 | 7.0 | 9.0 | 0.00 | 0.00 | 0.00 | 60 | 1017.0 |
| 20260902073404 | 79 | 295 | 6.0 | 10.0 | 0.00 | 0.00 | 0.00 | 61 | 1016.9 |
| 20260902073206 | 79 | 326 | 7.0 | 10.0 | 0.00 | 0.00 | 0.00 | 60 | 1016.9 |
| 20260902073104 | 79 | 267 | 6.0 | 10.0 | 0.00 | 0.00 | 0.00 | 62 | 1016.9 |
| 20260902073004 | 79 | 318 | 6.0 | 10.0 | 0.00 | 0.00 | 0.00 | 61 | 1016.9 |
| 20260902072804 | 78 | 347 | 3.0 | 10.0 | 0.00 | 0.00 | 0.00 | 61 | 1016.8 |
| 20260902072704 | 78 | 301 | 6.0 | 10.0 | 0.00 | 0.00 | 0.00 | 62 | 1016.8 |
| 20260902072606 | 78 | 306 | 6.0 | 10.0 | 0.00 | 0.00 | 0.00 | 62 | 1016.8 |
| 20260902072404 | 78 | 296 | 6.0 | 10.0 | 0.00 | 0.00 | 0.00 | 62 | 1016.9 |
| 20260902072309 | 78 | 322 | 5.0 | 6.0 | 0.00 | 0.00 | 0.00 | 61 | 1016.8 |
| 20260902072204 | 78 | 290 | 2.0 | 6.0 | 0.00 | 0.00 | 0.00 | 61 | 1016.8 |
| 20260902072104 | 78 | 290 | 4.0 | 6.0 | 0.00 | 0.00 | 0.00 | 61 | 1016.8 |
| 20260902072008 | 78 | 269 | 3.0 | 6.0 | 0.00 | 0.00 | 0.00 | 60 | 1016.8 |
| 20260902071903 | 78 | 277 | 1.0 | 6.0 | 0.00 | 0.00 | 0.00 | 60 | 1016.8 |
| 20260902071804 | 78 | 276 | 4.0 | 6.0 | 0.00 | 0.00 | 0.00 | 61 | 1016.8 |
| 20260902071605 | 78 | 267 | 2.0 | 6.0 | 0.00 | 0.00 | 0.00 | 61 | 1016.8 |
| 20260902071407 | 78 | 336 | 3.0 | 6.0 | 0.00 | 0.00 | 0.00 | 61 | 1016.8 |
| 20260902071304 | 78 | 286 | 3.0 | 6.0 | 0.00 | 0.00 | 0.00 | 61 | 1016.8 |
| 20260902071203 | 78 | 296 | 2.0 | 6.0 | 0.00 | 0.00 | 0.00 | 60 | 1016.8 |
| 20260902071006 | 78 | 286 | 4.0 | 5.0 | 0.00 | 0.00 | 0.00 | 59 | 1016.8 |
| 20260902070905 | 78 | 265 | 2.0 | 4.0 | 0.00 | 0.00 | 0.00 | 59 | 1016.8 |
| 20260902070704 | 77 | 283 | 3.0 | 4.0 | 0.00 | 0.00 | 0.00 | 60 | 1016.8 |
| 20260902070604 | 77 | 346 | 2.0 | 4.0 | 0.00 | 0.00 | 0.00 | 62 | 1016.8 |
| 20260902070506 | 77 | 320 | 3.0 | 4.0 | 0.00 | 0.00 | 0.00 | 61 | 1016.8 |
| 20260902070404 | 77 | 340 | 3.0 | 3.0 | 0.00 | 0.00 | 0.00 | 62 | 1016.8 |
| 20260902070303 | 77 | 331 | 1.0 | 3.0 | 0.00 | 0.00 | 0.00 | 61 | 1016.8 |
| 20260902070206 | 77 | 331 | 3.0 | 3.0 | 0.00 | 0.00 | 0.00 | 61 | 1016.8 |
| 20260902070103 | 77 | 317 | 2.0 | 3.0 | 0.00 | 0.00 | 0.00 | 61 | 1016.7 |
| 20260902065804 | 76 | 355 | 2.0 | 3.0 | 0.00 | 0.00 | 0.00 | 62 | 1016.7 |
| 20260902065606 | 76 | 351 | 1.0 | 3.0 | 0.00 | 0.00 | 0.00 | 61 | 1016.7 |
| 20260902065504 | 76 | 5 | 1.0 | 3.0 | 0.00 | 0.00 | 0.00 | 62 | 1016.7 |
| 20260902065404 | 75 | 38 | 1.0 | 1.0 | 0.00 | 0.00 | 0.00 | 63 | 1016.7 |
| 20260902065307 | 75 | 38 | 0.0 | 0.0 | 0.00 | 0.00 | 0.00 | 63 | 1016.7 |
| 20260902065203 | 75 | 38 | 0.0 | 0.0 | 0.00 | 0.00 | 0.00 | 63 | 1016.7 |
| 20260902065103 | 75 | 38 | 0.0 | 0.0 | 0.00 | 0.00 | 0.00 | 63 | 1016.7 |
| 20260902065009 | 75 | 38 | 0.0 | 0.0 | 0.00 | 0.00 | 0.00 | 63 | 1016.7 |
| 20260902064903 | 75 | 38 | 0.0 | 0.0 | 0.00 | 0.00 | 0.00 | 63 | 1016.7 |
| 20260902064706 | 75 | 38 | 0.0 | 1.0 | 0.00 | 0.00 | 0.00 | 65 | 1016.7 |
| 20260902064604 | 75 | 38 | 0.0 | 1.0 | 0.00 | 0.00 | 0.00 | 65 | 1016.6 |
| 20260902064406 | 75 | 38 | 0.0 | 1.0 | 0.00 | 0.00 | 0.00 | 65 | 1016.6 |
| 20260902064303 | 74 | 38 | 0.0 | 1.0 | 0.00 | 0.00 | 0.00 | 66 | 1016.6 |
| 20260902064204 | 74 | 38 | 0.0 | 1.0 | 0.00 | 0.00 | 0.00 | 65 | 1016.6 |
| 20260902064107 | 74 | 38 | 0.0 | 1.0 | 0.00 | 0.00 | 0.00 | 64 | 1016.6 |
| 20260902063904 | 74 | 38 | 0.0 | 2.0 | 0.00 | 0.00 | 0.00 | 65 | 1016.6 |
| 20260902063807 | 74 | 38 | 1.0 | 2.0 | 0.00 | 0.00 | 0.00 | 66 | 1016.6 |
| 20260902063704 | 74 | 38 | 1.0 | 2.0 | 0.00 | 0.00 | 0.00 | 66 | 1016.6 |
| 20260902063604 | 73 | 38 | 1.0 | 2.0 | 0.00 | 0.00 | 0.00 | 65 | 1016.7 |
| 20260902063508 | 73 | 38 | 0.0 | 2.0 | 0.00 | 0.00 | 0.00 | 66 | 1016.7 |
| 20260902063403 | 73 | 38 | 0.0 | 2.0 | 0.00 | 0.00 | 0.00 | 66 | 1016.7 |
| 20260902063304 | 73 | 38 | 0.0 | 2.0 | 0.00 | 0.00 | 0.00 | 66 | 1016.7 |
| 20260902063206 | 73 | 38 | 0.0 | 2.0 | 0.00 | 0.00 | 0.00 | 67 | 1016.7 |
| 20260902063005 | 72 | 38 | 1.0 | 2.0 | 0.00 | 0.00 | 0.00 | 68 | 1016.7 |
| 20260902062906 | 72 | 38 | 1.0 | 2.0 | 0.00 | 0.00 | 0.00 | 68 | 1016.7 |
| 20260902062805 | 72 | 38 | 0.0 | 2.0 | 0.00 | 0.00 | 0.00 | 68 | 1016.6 |
| 20260902062703 | 72 | 38 | 0.0 | 2.0 | 0.00 | 0.00 | 0.00 | 68 | 1016.6 |
| 20260902062606 | 72 | 38 | 1.0 | 2.0 | 0.00 | 0.00 | 0.00 | 68 | 1016.6 |
| 20260902062504 | 72 | 38 | 1.0 | 2.0 | 0.00 | 0.00 | 0.00 | 68 | 1016.6 |
| 20260902062403 | 72 | 38 | 0.0 | 2.0 | 0.00 | 0.00 | 0.00 | 68 | 1016.6 |
| 20260902062306 | 72 | 38 | 0.0 | 2.0 | 0.00 | 0.00 | 0.00 | 68 | 1016.7 |
| 20260902062204 | 72 | 38 | 0.0 | 3.0 | 0.00 | 0.00 | 0.00 | 68 | 1016.7 |
| 20260902062103 | 71 | 38 | 0.0 | 3.0 | 0.00 | 0.00 | 0.00 | 68 | 1016.7 |
| 20260902062008 | 71 | 38 | 1.0 | 3.0 | 0.00 | 0.00 | 0.00 | 69 | 1016.7 |
| 20260902061905 | 71 | 38 | 0.0 | 3.0 | 0.00 | 0.00 | 0.00 | 69 | 1016.7 |
| 20260902061706 | 71 | 38 | 1.0 | 3.0 | 0.00 | 0.00 | 0.00 | 69 | 1016.7 |
| 20260902061604 | 71 | 38 | 1.0 | 3.0 | 0.00 | 0.00 | 0.00 | 69 | 1016.7 |
| 20260902061504 | 71 | 38 | 1.0 | 3.0 | 0.00 | 0.00 | 0.00 | 69 | 1016.7 |
| 20260902061407 | 71 | 38 | 1.0 | 3.0 | 0.00 | 0.00 | 0.00 | 69 | 1016.7 |
| 20260902061108 | 70 | 38 | 1.0 | 2.0 | 0.00 | 0.00 | 0.00 | 70 | 1016.7 |
| 20260902060904 | 70 | 38 | 1.0 | 4.0 | 0.00 | 0.00 | 0.00 | 70 | 1016.7 |
| 20260902060604 | 70 | 38 | 2.0 | 4.0 | 0.00 | 0.00 | 0.00 | 71 | 1016.7 |
| 20260902060405 | 69 | 38 | 2.0 | 4.0 | 0.00 | 0.00 | 0.00 | 71 | 1016.7 |
| 20260902060304 | 69 | 38 | 1.0 | 4.0 | 0.00 | 0.00 | 0.00 | 71 | 1016.7 |
| 20260902060208 | 69 | 38 | 2.0 | 4.0 | 0.00 | 0.00 | 0.00 | 72 | 1016.7 |
| 20260902060116 | 69 | 38 | 1.0 | 4.0 | 0.00 | 0.00 | 0.00 | 72 | 1016.7 |
| 20260902060007 | 69 | 38 | 2.0 | 4.0 | 0.00 | 0.00 | 0.00 | 73 | 1016.7 |
| 20260902055906 | 68 | 38 | 3.0 | 4.0 | 0.00 | 0.00 | 0.00 | 73 | 1016.7 |
| 20260902055704 | 68 | 38 | 2.0 | 2.0 | 0.00 | 0.00 | 0.00 | 74 | 1016.7 |
| 20260902055607 | 68 | 38 | 1.0 | 2.0 | 0.00 | 0.00 | 0.00 | 75 | 1016.7 |
| 20260902055404 | 67 | 38 | 0.0 | 2.0 | 0.00 | 0.00 | 0.00 | 77 | 1016.7 |
| 20260902055307 | 67 | 38 | 0.0 | 2.0 | 0.00 | 0.00 | 0.00 | 77 | 1016.7 |
| 20260902055203 | 67 | 38 | 0.0 | 3.0 | 0.00 | 0.00 | 0.00 | 78 | 1016.6 |
| 20260902055104 | 67 | 38 | 0.0 | 3.0 | 0.00 | 0.00 | 0.00 | 78 | 1016.6 |
| 20260902055008 | 67 | 38 | 0.0 | 3.0 | 0.00 | 0.00 | 0.00 | 78 | 1016.6 |
| 20260902054903 | 66 | 38 | 0.0 | 3.0 | 0.00 | 0.00 | 0.00 | 79 | 1016.6 |
| 20260902054804 | 66 | 38 | 0.0 | 3.0 | 0.00 | 0.00 | 0.00 | 79 | 1016.7 |
| 20260902054707 | 66 | 38 | 0.0 | 3.0 | 0.00 | 0.00 | 0.00 | 79 | 1016.6 |
| 20260902054406 | 65 | 38 | 1.0 | 3.0 | 0.00 | 0.00 | 0.00 | 80 | 1016.6 |
| 20260902054305 | 65 | 38 | 2.0 | 3.0 | 0.00 | 0.00 | 0.00 | 81 | 1016.6 |
| 20260902054203 | 65 | 38 | 2.0 | 3.0 | 0.00 | 0.00 | 0.00 | 81 | 1016.6 |
| 20260902054106 | 65 | 38 | 2.0 | 3.0 | 0.00 | 0.00 | 0.00 | 82 | 1016.5 |
| 20260902054005 | 65 | 38 | 2.0 | 3.0 | 0.00 | 0.00 | 0.00 | 83 | 1016.5 |
| 20260902053704 | 64 | 38 | 1.0 | 3.0 | 0.00 | 0.00 | 0.00 | 84 | 1016.5 |
| 20260902053603 | 64 | 38 | 2.0 | 3.0 | 0.00 | 0.00 | 0.00 | 84 | 1016.6 |
| 20260902053304 | 64 | 38 | 2.0 | 3.0 | 0.00 | 0.00 | 0.00 | 85 | 1016.6 |
| 20260902053207 | 64 | 38 | 1.0 | 3.0 | 0.00 | 0.00 | 0.00 | 85 | 1016.5 |
| 20260902053103 | 64 | 38 | 2.0 | 3.0 | 0.00 | 0.00 | 0.00 | 85 | 1016.5 |
| 20260902053004 | 64 | 38 | 1.0 | 3.0 | 0.00 | 0.00 | 0.00 | 85 | 1016.5 |
| 20260902052906 | 64 | 38 | 2.0 | 3.0 | 0.00 | 0.00 | 0.00 | 85 | 1016.5 |
| 20260902052804 | 64 | 38 | 2.0 | 3.0 | 0.00 | 0.00 | 0.00 | 85 | 1016.6 |
| 20260902052704 | 64 | 38 | 2.0 | 3.0 | 0.00 | 0.00 | 0.00 | 85 | 1016.5 |
| 20260902052504 | 64 | 38 | 1.0 | 3.0 | 0.00 | 0.00 | 0.00 | 86 | 1016.5 |
| 20260902052403 | 63 | 38 | 1.0 | 3.0 | 0.00 | 0.00 | 0.00 | 85 | 1016.5 |
| 20260902052103 | 63 | 38 | 2.0 | 3.0 | 0.00 | 0.00 | 0.00 | 85 | 1016.5 |
| 20260902052007 | 63 | 38 | 2.0 | 3.0 | 0.00 | 0.00 | 0.00 | 85 | 1016.5 |
| 20260902051904 | 63 | 38 | 1.0 | 3.0 | 0.00 | 0.00 | 0.00 | 85 | 1016.5 |
| 20260902051804 | 63 | 38 | 2.0 | 3.0 | 0.00 | 0.00 | 0.00 | 86 | 1016.4 |
| 20260902051706 | 63 | 38 | 2.0 | 3.0 | 0.00 | 0.00 | 0.00 | 86 | 1016.5 |
| 20260902051604 | 63 | 38 | 3.0 | 3.0 | 0.00 | 0.00 | 0.00 | 86 | 1016.5 |
| 20260902051504 | 63 | 38 | 3.0 | 3.0 | 0.00 | 0.00 | 0.00 | 86 | 1016.4 |
| 20260902051406 | 63 | 38 | 2.0 | 3.0 | 0.00 | 0.00 | 0.00 | 86 | 1016.4 |
| 20260902051303 | 63 | 38 | 2.0 | 3.0 | 0.00 | 0.00 | 0.00 | 86 | 1016.4 |
| 20260902051204 | 63 | 38 | 2.0 | 3.0 | 0.00 | 0.00 | 0.00 | 86 | 1016.4 |
| 20260902051107 | 63 | 38 | 1.0 | 4.0 | 0.00 | 0.00 | 0.00 | 86 | 1016.4 |
| 20260902051004 | 63 | 38 | 1.0 | 4.0 | 0.00 | 0.00 | 0.00 | 85 | 1016.3 |
| 20260902050905 | 63 | 38 | 1.0 | 4.0 | 0.00 | 0.00 | 0.00 | 85 | 1016.4 |
| 20260902050806 | 63 | 37 | 2.0 | 4.0 | 0.00 | 0.00 | 0.00 | 85 | 1016.3 |
| 20260902050703 | 63 | 38 | 2.0 | 5.0 | 0.00 | 0.00 | 0.00 | 85 | 1016.4 |
| 20260902050604 | 63 | 38 | 2.0 | 5.0 | 0.00 | 0.00 | 0.00 | 85 | 1016.3 |
| 20260902050506 | 63 | 38 | 2.0 | 5.0 | 0.00 | 0.00 | 0.00 | 85 | 1016.3 |
| 20260902050403 | 63 | 38 | 3.0 | 5.0 | 0.00 | 0.00 | 0.00 | 85 | 1016.3 |
| 20260902050208 | 63 | 38 | 3.0 | 5.0 | 0.00 | 0.00 | 0.00 | 86 | 1016.3 |
| 20260902050103 | 63 | 38 | 3.0 | 5.0 | 0.00 | 0.00 | 0.00 | 86 | 1016.3 |
| 20260902050008 | 63 | 38 | 3.0 | 5.0 | 0.00 | 0.00 | 0.00 | 86 | 1016.3 |
| 20260902045906 | 63 | 38 | 4.0 | 5.0 | 0.00 | 0.00 | 0.00 | 86 | 1016.3 |
| 20260902045803 | 62 | 36 | 4.0 | 5.0 | 0.00 | 0.00 | 0.00 | 86 | 1016.3 |
| 20260902045703 | 62 | 36 | 4.0 | 5.0 | 0.00 | 0.00 | 0.00 | 86 | 1016.3 |
| 20260902045606 | 62 | 35 | 5.0 | 5.0 | 0.00 | 0.00 | 0.00 | 87 | 1016.3 |
| 20260902045504 | 62 | 31 | 4.0 | 5.0 | 0.00 | 0.00 | 0.00 | 88 | 1016.3 |
| 20260902045403 | 62 | 34 | 4.0 | 4.0 | 0.00 | 0.00 | 0.00 | 88 | 1016.3 |
| 20260902045205 | 62 | 26 | 0.0 | 0.0 | 0.00 | 0.00 | 0.00 | 89 | 1016.3 |
| 20260902045007 | 62 | 20 | 0.0 | 0.0 | 0.00 | 0.00 | 0.00 | 89 | 1016.3 |
| 20260902044904 | 62 | 20 | 0.0 | 0.0 | 0.00 | 0.00 | 0.00 | 89 | 1016.3 |
| 20260902044803 | 61 | 20 | 0.0 | 0.0 | 0.00 | 0.00 | 0.00 | 89 | 1016.2 |
| 20260902044706 | 61 | 20 | 0.0 | 0.0 | 0.00 | 0.00 | 0.00 | 89 | 1016.3 |
| 20260902044604 | 61 | 143 | 0.0 | 0.0 | 0.00 | 0.00 | 0.00 | 89 | 1016.2 |
| 20260902044407 | 61 | 143 | 0.0 | 0.0 | 0.00 | 0.00 | 0.00 | 89 | 1016.2 |
| 20260902044304 | 61 | 143 | 0.0 | 0.0 | 0.00 | 0.00 | 0.00 | 89 | 1016.2 |
| 20260902044107 | 61 | 143 | 0.0 | 0.0 | 0.00 | 0.00 | 0.00 | 89 | 1016.2 |
| 20260902043904 | 61 | 143 | 0.0 | 0.0 | 0.00 | 0.00 | 0.00 | 89 | 1016.2 |
| 20260902043704 | 62 | 143 | 0.0 | 0.0 | 0.00 | 0.00 | 0.00 | 89 | 1016.2 |
| 20260902043604 | 61 | 143 | 0.0 | 0.0 | 0.00 | 0.00 | 0.00 | 89 | 1016.2 |
| 20260902043507 | 61 | 143 | 0.0 | 0.0 | 0.00 | 0.00 | 0.00 | 89 | 1016.2 |
| 20260902043403 | 62 | 143 | 0.0 | 0.0 | 0.00 | 0.00 | 0.00 | 89 | 1016.2 |
| 20260902043304 | 62 | 143 | 0.0 | 0.0 | 0.00 | 0.00 | 0.00 | 89 | 1016.3 |
| 20260902043207 | 62 | 143 | 0.0 | 0.0 | 0.00 | 0.00 | 0.00 | 89 | 1016.2 |
| 20260902043104 | 62 | 143 | 0.0 | 0.0 | 0.00 | 0.00 | 0.00 | 89 | 1016.3 |
| 20260902043004 | 62 | 143 | 0.0 | 0.0 | 0.00 | 0.00 | 0.00 | 89 | 1016.3 |
| 20260902042907 | 62 | 143 | 0.0 | 0.0 | 0.00 | 0.00 | 0.00 | 88 | 1016.2 |
| 20260902042703 | 62 | 142 | 0.0 | 0.0 | 0.00 | 0.00 | 0.00 | 88 | 1016.2 |
| 20260902042606 | 62 | 142 | 0.0 | 0.0 | 0.00 | 0.00 | 0.00 | 88 | 1016.3 |
| 20260902042504 | 62 | 142 | 0.0 | 0.0 | 0.00 | 0.00 | 0.00 | 88 | 1016.3 |
| 20260902042403 | 62 | 142 | 0.0 | 0.0 | 0.00 | 0.00 | 0.00 | 88 | 1016.2 |
| 20260902042309 | 62 | 142 | 0.0 | 0.0 | 0.00 | 0.00 | 0.00 | 88 | 1016.2 |
| 20260902042204 | 62 | 142 | 0.0 | 0.0 | 0.00 | 0.00 | 0.00 | 88 | 1016.2 |
| 20260902042103 | 62 | 142 | 0.0 | 0.0 | 0.00 | 0.00 | 0.00 | 88 | 1016.2 |
| 20260902042009 | 62 | 142 | 0.0 | 0.0 | 0.00 | 0.00 | 0.00 | 88 | 1016.2 |
| 20260902041804 | 62 | 186 | 0.0 | 0.0 | 0.00 | 0.00 | 0.00 | 88 | 1016.2 |
| 20260902041706 | 62 | 186 | 0.0 | 0.0 | 0.00 | 0.00 | 0.00 | 88 | 1016.2 |
| 20260902041603 | 62 | 186 | 0.0 | 0.0 | 0.00 | 0.00 | 0.00 | 88 | 1016.2 |
| 20260902041504 | 62 | 227 | 0.0 | 0.0 | 0.00 | 0.00 | 0.00 | 87 | 1016.3 |
| 20260902041406 | 62 | 227 | 0.0 | 0.0 | 0.00 | 0.00 | 0.00 | 87 | 1016.3 |
| 20260902041304 | 62 | 227 | 0.0 | 1.0 | 0.00 | 0.00 | 0.00 | 88 | 1016.3 |
| 20260902041204 | 62 | 227 | 0.0 | 2.0 | 0.00 | 0.00 | 0.00 | 88 | 1016.3 |
| 20260902041106 | 62 | 227 | 0.0 | 2.0 | 0.00 | 0.00 | 0.00 | 88 | 1016.3 |
| 20260902040903 | 62 | 227 | 0.0 | 2.0 | 0.00 | 0.00 | 0.00 | 87 | 1016.3 |
| 20260902040806 | 62 | 227 | 0.0 | 2.0 | 0.00 | 0.00 | 0.00 | 89 | 1016.3 |
| 20260902040703 | 62 | 238 | 0.0 | 3.0 | 0.00 | 0.00 | 0.00 | 89 | 1016.2 |
| 20260902040603 | 62 | 238 | 0.0 | 3.0 | 0.00 | 0.00 | 0.00 | 89 | 1016.3 |
| 20260902040506 | 62 | 238 | 0.0 | 3.0 | 0.00 | 0.00 | 0.00 | 87 | 1016.2 |
| 20260902040404 | 62 | 238 | 0.0 | 3.0 | 0.00 | 0.00 | 0.00 | 87 | 1016.2 |
| 20260902040304 | 62 | 238 | 0.0 | 3.0 | 0.00 | 0.00 | 0.00 | 87 | 1016.2 |
| 20260902040211 | 62 | 238 | 1.0 | 3.0 | 0.00 | 0.00 | 0.00 | 87 | 1016.2 |
| 20260902040117 | 62 | 238 | 1.0 | 3.0 | 0.00 | 0.00 | 0.00 | 87 | 1016.2 |
| 20260902040007 | 62 | 238 | 0.0 | 3.0 | 0.00 | 0.00 | 0.00 | 87 | 1016.2 |
| 20260902035906 | 62 | 238 | 0.0 | 3.0 | 0.00 | 0.00 | 0.00 | 87 | 1016.2 |
| 20260902035704 | 62 | 238 | 2.0 | 3.0 | 0.00 | 0.00 | 0.00 | 87 | 1016.2 |
| 20260902035504 | 62 | 233 | 2.0 | 3.0 | 0.00 | 0.00 | 0.00 | 87 | 1016.2 |
| 20260902035404 | 62 | 233 | 3.0 | 3.0 | 0.00 | 0.00 | 0.00 | 87 | 1016.1 |
| 20260902035306 | 62 | 257 | 3.0 | 3.0 | 0.00 | 0.00 | 0.00 | 87 | 1016.2 |
| 20260902035203 | 62 | 257 | 2.0 | 3.0 | 0.00 | 0.00 | 0.00 | 86 | 1016.2 |
| 20260902035103 | 62 | 259 | 2.0 | 3.0 | 0.00 | 0.00 | 0.00 | 86 | 1016.2 |
| 20260902035008 | 62 | 259 | 1.0 | 3.0 | 0.00 | 0.00 | 0.00 | 86 | 1016.2 |
| 20260902034904 | 62 | 259 | 2.0 | 3.0 | 0.00 | 0.00 | 0.00 | 86 | 1016.2 |
| 20260902034803 | 63 | 259 | 2.0 | 3.0 | 0.00 | 0.00 | 0.00 | 86 | 1016.2 |
| 20260902034706 | 63 | 260 | 1.0 | 3.0 | 0.00 | 0.00 | 0.00 | 86 | 1016.2 |
| 20260902034603 | 63 | 259 | 1.0 | 3.0 | 0.00 | 0.00 | 0.00 | 86 | 1016.2 |
| 20260902034504 | 63 | 259 | 2.0 | 3.0 | 0.00 | 0.00 | 0.00 | 86 | 1016.2 |
| 20260902034406 | 63 | 260 | 2.0 | 3.0 | 0.00 | 0.00 | 0.00 | 86 | 1016.2 |
| 20260902034303 | 63 | 198 | 2.0 | 3.0 | 0.00 | 0.00 | 0.00 | 86 | 1016.2 |
| 20260902034203 | 63 | 198 | 2.0 | 3.0 | 0.00 | 0.00 | 0.00 | 85 | 1016.1 |
| 20260902034107 | 63 | 198 | 2.0 | 2.0 | 0.00 | 0.00 | 0.00 | 85 | 1016.1 |
| 20260902034004 | 63 | 198 | 0.0 | 2.0 | 0.00 | 0.00 | 0.00 | 85 | 1016.1 |
| 20260902033806 | 63 | 198 | 0.0 | 2.0 | 0.00 | 0.00 | 0.00 | 85 | 1016.1 |
| 20260902033704 | 63 | 198 | 0.0 | 3.0 | 0.00 | 0.00 | 0.00 | 85 | 1016.1 |
| 20260902033507 | 63 | 198 | 0.0 | 3.0 | 0.00 | 0.00 | 0.00 | 85 | 1016.2 |
| 20260902033405 | 63 | 198 | 1.0 | 3.0 | 0.00 | 0.00 | 0.00 | 85 | 1016.1 |
| 20260902033303 | 63 | 198 | 1.0 | 3.0 | 0.00 | 0.00 | 0.00 | 85 | 1016.1 |
| 20260902033206 | 63 | 198 | 1.0 | 3.0 | 0.00 | 0.00 | 0.00 | 85 | 1016.2 |
| 20260902033103 | 63 | 198 | 0.0 | 3.0 | 0.00 | 0.00 | 0.00 | 85 | 1016.2 |
| 20260902033004 | 63 | 198 | 1.0 | 3.0 | 0.00 | 0.00 | 0.00 | 85 | 1016.2 |
| 20260902032906 | 63 | 198 | 2.0 | 3.0 | 0.00 | 0.00 | 0.00 | 85 | 1016.2 |
| 20260902032804 | 63 | 198 | 2.0 | 3.0 | 0.00 | 0.00 | 0.00 | 85 | 1016.2 |
| 20260902032704 | 63 | 198 | 2.0 | 3.0 | 0.00 | 0.00 | 0.00 | 85 | 1016.2 |
| 20260902032606 | 63 | 198 | 3.0 | 3.0 | 0.00 | 0.00 | 0.00 | 85 | 1016.2 |
| 20260902032504 | 63 | 198 | 2.0 | 3.0 | 0.00 | 0.00 | 0.00 | 85 | 1016.2 |
| 20260902032404 | 63 | 198 | 3.0 | 3.0 | 0.00 | 0.00 | 0.00 | 84 | 1016.2 |
| 20260902032103 | 63 | 198 | 1.0 | 3.0 | 0.00 | 0.00 | 0.00 | 85 | 1016.3 |
| 20260902032007 | 63 | 198 | 0.0 | 3.0 | 0.00 | 0.00 | 0.00 | 85 | 1016.3 |
| 20260902031903 | 63 | 198 | 0.0 | 4.0 | 0.00 | 0.00 | 0.00 | 85 | 1016.3 |
| 20260902031804 | 63 | 198 | 1.0 | 5.0 | 0.00 | 0.00 | 0.00 | 85 | 1016.3 |
| 20260902031706 | 63 | 198 | 0.0 | 5.0 | 0.00 | 0.00 | 0.00 | 85 | 1016.3 |
| 20260902031603 | 63 | 198 | 1.0 | 6.0 | 0.00 | 0.00 | 0.00 | 85 | 1016.3 |
| 20260902031406 | 63 | 198 | 1.0 | 6.0 | 0.00 | 0.00 | 0.00 | 85 | 1016.3 |
| 20260902031304 | 63 | 198 | 0.0 | 6.0 | 0.00 | 0.00 | 0.00 | 84 | 1016.3 |
| 20260902031204 | 63 | 198 | 1.0 | 6.0 | 0.00 | 0.00 | 0.00 | 84 | 1016.2 |
| 20260902031106 | 63 | 198 | 2.0 | 6.0 | 0.00 | 0.00 | 0.00 | 85 | 1016.2 |
| 20260902031005 | 63 | 198 | 3.0 | 6.0 | 0.00 | 0.00 | 0.00 | 85 | 1016.2 |
| 20260902030904 | 63 | 198 | 3.0 | 6.0 | 0.00 | 0.00 | 0.00 | 85 | 1016.2 |
| 20260902030806 | 63 | 198 | 4.0 | 6.0 | 0.00 | 0.00 | 0.00 | 85 | 1016.2 |
| 20260902030704 | 63 | 198 | 5.0 | 6.0 | 0.00 | 0.00 | 0.00 | 85 | 1016.2 |
| 20260902030506 | 63 | 198 | 6.0 | 6.0 | 0.00 | 0.00 | 0.00 | 85 | 1016.2 |
| 20260902030404 | 63 | 198 | 5.0 | 6.0 | 0.00 | 0.00 | 0.00 | 86 | 1016.2 |
| 20260902030303 | 63 | 196 | 5.0 | 6.0 | 0.00 | 0.00 | 0.00 | 86 | 1016.2 |
| 20260902030207 | 62 | 196 | 5.0 | 6.0 | 0.00 | 0.00 | 0.00 | 86 | 1016.2 |
| 20260902030104 | 62 | 197 | 4.0 | 6.0 | 0.00 | 0.00 | 0.00 | 86 | 1016.2 |
| 20260902030008 | 62 | 197 | 4.0 | 6.0 | 0.00 | 0.00 | 0.00 | 86 | 1016.2 |
| 20260902025906 | 62 | 197 | 4.0 | 6.0 | 0.00 | 0.00 | 0.00 | 86 | 1016.2 |
| 20260902025803 | 62 | 197 | 4.0 | 6.0 | 0.00 | 0.00 | 0.00 | 86 | 1016.1 |
| 20260902025703 | 62 | 197 | 4.0 | 6.0 | 0.00 | 0.00 | 0.00 | 86 | 1016.1 |
| 20260902025606 | 62 | 197 | 4.0 | 6.0 | 0.00 | 0.00 | 0.00 | 86 | 1016.1 |
| 20260902025504 | 62 | 196 | 4.0 | 6.0 | 0.00 | 0.00 | 0.00 | 86 | 1016.1 |
| 20260902025307 | 62 | 199 | 5.0 | 6.0 | 0.00 | 0.00 | 0.00 | 87 | 1016.1 |
| 20260902025103 | 62 | 202 | 5.0 | 6.0 | 0.00 | 0.00 | 0.00 | 87 | 1016.1 |
| 20260902025007 | 62 | 203 | 6.0 | 6.0 | 0.00 | 0.00 | 0.00 | 87 | 1016.1 |
| 20260902024903 | 62 | 203 | 5.0 | 6.0 | 0.00 | 0.00 | 0.00 | 88 | 1016.1 |
| 20260902024803 | 62 | 203 | 5.0 | 6.0 | 0.00 | 0.00 | 0.00 | 88 | 1016.1 |
| 20260902024706 | 62 | 204 | 5.0 | 5.0 | 0.00 | 0.00 | 0.00 | 88 | 1016.1 |
| 20260902024603 | 62 | 204 | 5.0 | 5.0 | 0.00 | 0.00 | 0.00 | 88 | 1016.2 |
| 20260902024504 | 62 | 209 | 4.0 | 5.0 | 0.00 | 0.00 | 0.00 | 89 | 1016.2 |
| 20260902024406 | 62 | 211 | 4.0 | 5.0 | 0.00 | 0.00 | 0.00 | 89 | 1016.2 |
| 20260902024303 | 62 | 218 | 5.0 | 5.0 | 0.00 | 0.00 | 0.00 | 89 | 1016.2 |
| 20260902024203 | 62 | 218 | 4.0 | 5.0 | 0.00 | 0.00 | 0.00 | 89 | 1016.2 |
| 20260902024107 | 62 | 218 | 5.0 | 5.0 | 0.00 | 0.00 | 0.00 | 89 | 1016.1 |
| 20260902024004 | 62 | 224 | 4.0 | 5.0 | 0.00 | 0.00 | 0.00 | 89 | 1016.2 |
| 20260902023904 | 62 | 224 | 4.0 | 5.0 | 0.00 | 0.00 | 0.00 | 90 | 1016.1 |
| 20260902023806 | 62 | 223 | 4.0 | 5.0 | 0.00 | 0.00 | 0.00 | 90 | 1016.1 |
| 20260902023703 | 62 | 225 | 4.0 | 5.0 | 0.00 | 0.00 | 0.00 | 90 | 1016.1 |
| 20260902023604 | 62 | 229 | 4.0 | 5.0 | 0.00 | 0.00 | 0.00 | 90 | 1016.2 |
| 20260902023506 | 62 | 231 | 4.0 | 5.0 | 0.00 | 0.00 | 0.00 | 90 | 1016.1 |
| 20260902023403 | 62 | 229 | 2.0 | 5.0 | 0.00 | 0.00 | 0.00 | 91 | 1016.1 |
| 20260902023304 | 62 | 229 | 3.0 | 5.0 | 0.00 | 0.00 | 0.00 | 91 | 1016.2 |
| 20260902023208 | 62 | 229 | 4.0 | 5.0 | 0.00 | 0.00 | 0.00 | 91 | 1016.2 |
| 20260902023105 | 62 | 223 | 3.0 | 5.0 | 0.00 | 0.00 | 0.00 | 91 | 1016.1 |
| 20260902023005 | 62 | 219 | 5.0 | 5.0 | 0.00 | 0.00 | 0.00 | 91 | 1016.1 |
| 20260902022907 | 62 | 224 | 4.0 | 5.0 | 0.00 | 0.00 | 0.00 | 91 | 1016.1 |
| 20260902022803 | 62 | 227 | 4.0 | 5.0 | 0.00 | 0.00 | 0.00 | 91 | 1016.1 |
| 20260902022704 | 62 | 226 | 5.0 | 5.0 | 0.00 | 0.00 | 0.00 | 92 | 1016.1 |
| 20260902022606 | 62 | 227 | 4.0 | 6.0 | 0.00 | 0.00 | 0.00 | 92 | 1016.1 |
| 20260902022504 | 62 | 227 | 3.0 | 6.0 | 0.00 | 0.00 | 0.00 | 92 | 1016.1 |
| 20260902022403 | 62 | 203 | 3.0 | 6.0 | 0.00 | 0.00 | 0.00 | 92 | 1016.0 |
| 20260902022306 | 62 | 203 | 4.0 | 6.0 | 0.00 | 0.00 | 0.00 | 92 | 1016.0 |
| 20260902022105 | 62 | 196 | 4.0 | 6.0 | 0.00 | 0.00 | 0.00 | 92 | 1016.1 |
| 20260902022008 | 62 | 196 | 4.0 | 6.0 | 0.00 | 0.00 | 0.00 | 92 | 1016.1 |
| 20260902021904 | 62 | 196 | 4.0 | 6.0 | 0.00 | 0.00 | 0.00 | 92 | 1016.0 |
| 20260902021804 | 62 | 196 | 4.0 | 6.0 | 0.00 | 0.00 | 0.00 | 92 | 1016.1 |
| 20260902021706 | 62 | 196 | 5.0 | 6.0 | 0.00 | 0.00 | 0.00 | 92 | 1016.1 |
| 20260902021503 | 62 | 191 | 4.0 | 6.0 | 0.00 | 0.00 | 0.00 | 92 | 1016.0 |
| 20260902021406 | 62 | 189 | 6.0 | 6.0 | 0.00 | 0.00 | 0.00 | 92 | 1016.0 |
| 20260902021304 | 62 | 192 | 5.0 | 7.0 | 0.00 | 0.00 | 0.00 | 92 | 1016.0 |
| 20260902021204 | 62 | 196 | 5.0 | 7.0 | 0.00 | 0.00 | 0.00 | 93 | 1016.0 |
| 20260902021106 | 62 | 193 | 6.0 | 7.0 | 0.00 | 0.00 | 0.00 | 93 | 1016.0 |
| 20260902021004 | 62 | 196 | 6.0 | 7.0 | 0.00 | 0.00 | 0.00 | 93 | 1016.0 |
| 20260902020903 | 62 | 195 | 5.0 | 7.0 | 0.00 | 0.00 | 0.00 | 93 | 1016.1 |
| 20260902020806 | 62 | 202 | 6.0 | 7.0 | 0.00 | 0.00 | 0.00 | 93 | 1016.0 |
| 20260902020704 | 62 | 204 | 5.0 | 7.0 | 0.00 | 0.00 | 0.00 | 93 | 1016.0 |
| 20260902020603 | 62 | 204 | 5.0 | 7.0 | 0.00 | 0.00 | 0.00 | 93 | 1016.1 |
| 20260902020506 | 62 | 211 | 6.0 | 7.0 | 0.00 | 0.00 | 0.00 | 93 | 1016.1 |
| 20260902020405 | 62 | 206 | 5.0 | 7.0 | 0.00 | 0.00 | 0.00 | 93 | 1016.1 |
| 20260902020303 | 62 | 206 | 6.0 | 7.0 | 0.00 | 0.00 | 0.00 | 93 | 1016.1 |
| 20260902020206 | 62 | 200 | 5.0 | 6.0 | 0.00 | 0.00 | 0.00 | 93 | 1016.1 |
| 20260902020128 | 62 | 200 | 6.0 | 6.0 | 0.00 | 0.00 | 0.00 | 93 | 1016.1 |
| 20260902015906 | 62 | 200 | 6.0 | 6.0 | 0.00 | 0.00 | 0.00 | 93 | 1016.1 |
| 20260902015804 | 62 | 201 | 6.0 | 6.0 | 0.00 | 0.00 | 0.00 | 93 | 1016.1 |
| 20260902015503 | 62 | 218 | 5.0 | 6.0 | 0.00 | 0.00 | 0.00 | 93 | 1016.1 |
| 20260902015404 | 62 | 218 | 5.0 | 6.0 | 0.00 | 0.00 | 0.00 | 92 | 1016.2 |
| 20260902015307 | 62 | 218 | 4.0 | 6.0 | 0.00 | 0.00 | 0.00 | 92 | 1016.2 |
| 20260902015205 | 62 | 218 | 5.0 | 6.0 | 0.00 | 0.00 | 0.00 | 92 | 1016.1 |
| 20260902015104 | 62 | 218 | 5.0 | 6.0 | 0.00 | 0.00 | 0.00 | 92 | 1016.1 |
| 20260902015007 | 62 | 218 | 5.0 | 6.0 | 0.00 | 0.00 | 0.00 | 92 | 1016.1 |
| 20260902014903 | 62 | 218 | 4.0 | 6.0 | 0.00 | 0.00 | 0.00 | 92 | 1016.1 |
| 20260902014803 | 62 | 218 | 5.0 | 6.0 | 0.00 | 0.00 | 0.00 | 92 | 1016.1 |
| 20260902014706 | 62 | 218 | 4.0 | 5.0 | 0.00 | 0.00 | 0.00 | 92 | 1016.1 |
| 20260902014603 | 62 | 218 | 4.0 | 5.0 | 0.00 | 0.00 | 0.00 | 92 | 1016.1 |
| 20260902014504 | 62 | 218 | 4.0 | 5.0 | 0.00 | 0.00 | 0.00 | 92 | 1016.1 |
| 20260902014407 | 62 | 233 | 4.0 | 5.0 | 0.00 | 0.00 | 0.00 | 92 | 1016.1 |
| 20260902014303 | 62 | 233 | 4.0 | 5.0 | 0.00 | 0.00 | 0.00 | 92 | 1016.2 |
| 20260902014204 | 62 | 233 | 3.0 | 5.0 | 0.00 | 0.00 | 0.00 | 92 | 1016.2 |
| 20260902014005 | 62 | 233 | 3.0 | 5.0 | 0.00 | 0.00 | 0.00 | 92 | 1016.3 |
| 20260902013903 | 62 | 233 | 3.0 | 5.0 | 0.00 | 0.00 | 0.00 | 92 | 1016.3 |
| 20260902013703 | 62 | 233 | 4.0 | 5.0 | 0.00 | 0.00 | 0.00 | 92 | 1016.3 |
| 20260902013604 | 62 | 233 | 4.0 | 5.0 | 0.00 | 0.00 | 0.00 | 92 | 1016.3 |
| 20260902013506 | 62 | 233 | 3.0 | 5.0 | 0.00 | 0.00 | 0.00 | 92 | 1016.3 |
| 20260902013403 | 62 | 233 | 4.0 | 5.0 | 0.00 | 0.00 | 0.00 | 92 | 1016.3 |
| 20260902013304 | 62 | 233 | 3.0 | 5.0 | 0.00 | 0.00 | 0.00 | 92 | 1016.3 |
| 20260902013206 | 62 | 233 | 4.0 | 5.0 | 0.00 | 0.00 | 0.00 | 92 | 1016.3 |
| 20260902013104 | 62 | 233 | 5.0 | 5.0 | 0.00 | 0.00 | 0.00 | 92 | 1016.3 |
| 20260902013004 | 62 | 233 | 4.0 | 5.0 | 0.00 | 0.00 | 0.00 | 92 | 1016.3 |
| 20260902012907 | 62 | 233 | 5.0 | 5.0 | 0.00 | 0.00 | 0.00 | 92 | 1016.3 |
| 20260902012804 | 62 | 233 | 3.0 | 4.0 | 0.00 | 0.00 | 0.00 | 92 | 1016.2 |
| 20260902012703 | 63 | 233 | 3.0 | 4.0 | 0.00 | 0.00 | 0.00 | 92 | 1016.2 |
| 20260902012606 | 63 | 233 | 3.0 | 4.0 | 0.00 | 0.00 | 0.00 | 92 | 1016.2 |
| 20260902012504 | 63 | 233 | 3.0 | 4.0 | 0.00 | 0.00 | 0.00 | 92 | 1016.2 |
| 20260902012309 | 63 | 233 | 3.0 | 4.0 | 0.00 | 0.00 | 0.00 | 92 | 1016.2 |
| 20260902012203 | 63 | 233 | 2.0 | 4.0 | 0.00 | 0.00 | 0.00 | 92 | 1016.1 |
| 20260902012103 | 63 | 233 | 3.0 | 4.0 | 0.00 | 0.00 | 0.00 | 92 | 1016.1 |
| 20260902012007 | 63 | 233 | 3.0 | 4.0 | 0.00 | 0.00 | 0.00 | 92 | 1016.1 |
| 20260902011903 | 63 | 233 | 4.0 | 4.0 | 0.00 | 0.00 | 0.00 | 92 | 1016.1 |
| 20260902011803 | 63 | 233 | 2.0 | 4.0 | 0.00 | 0.00 | 0.00 | 92 | 1016.2 |
| 20260902011706 | 63 | 233 | 3.0 | 4.0 | 0.00 | 0.00 | 0.00 | 92 | 1016.2 |
| 20260902011603 | 63 | 233 | 3.0 | 4.0 | 0.00 | 0.00 | 0.00 | 92 | 1016.1 |
| 20260902011503 | 63 | 233 | 4.0 | 4.0 | 0.00 | 0.00 | 0.00 | 92 | 1016.1 |
| 20260902011407 | 63 | 233 | 3.0 | 4.0 | 0.00 | 0.00 | 0.00 | 92 | 1016.1 |
| 20260902011304 | 63 | 233 | 3.0 | 4.0 | 0.00 | 0.00 | 0.00 | 92 | 1016.1 |
| 20260902011204 | 63 | 233 | 2.0 | 4.0 | 0.00 | 0.00 | 0.00 | 92 | 1016.1 |
| 20260902011005 | 63 | 233 | 2.0 | 4.0 | 0.00 | 0.00 | 0.00 | 92 | 1016.1 |
| 20260902010903 | 63 | 233 | 2.0 | 4.0 | 0.00 | 0.00 | 0.00 | 92 | 1016.1 |
| 20260902010806 | 63 | 233 | 3.0 | 3.0 | 0.00 | 0.00 | 0.00 | 92 | 1016.1 |
| 20260902010704 | 63 | 233 | 1.0 | 3.0 | 0.00 | 0.00 | 0.00 | 92 | 1016.1 |
| 20260902010507 | 63 | 233 | 2.0 | 3.0 | 0.00 | 0.00 | 0.00 | 92 | 1016.1 |
| 20260902010403 | 63 | 233 | 2.0 | 3.0 | 0.00 | 0.00 | 0.00 | 92 | 1016.1 |
| 20260902010303 | 63 | 233 | 2.0 | 3.0 | 0.00 | 0.00 | 0.00 | 92 | 1016.1 |
| 20260902010206 | 63 | 233 | 1.0 | 3.0 | 0.00 | 0.00 | 0.00 | 92 | 1016.2 |
| 20260902010105 | 63 | 233 | 2.0 | 3.0 | 0.00 | 0.00 | 0.00 | 92 | 1016.1 |
| 20260902010006 | 63 | 233 | 2.0 | 3.0 | 0.00 | 0.00 | 0.00 | 92 | 1016.2 |
| 20260902005803 | 63 | 233 | 2.0 | 3.0 | 0.00 | 0.00 | 0.00 | 92 | 1016.1 |
| 20260902005704 | 63 | 233 | 1.0 | 3.0 | 0.00 | 0.00 | 0.00 | 92 | 1016.1 |
| 20260902005606 | 63 | 233 | 2.0 | 3.0 | 0.00 | 0.00 | 0.00 | 92 | 1016.1 |
| 20260902005503 | 63 | 233 | 1.0 | 3.0 | 0.00 | 0.00 | 0.00 | 92 | 1016.1 |
| 20260902005306 | 63 | 233 | 2.0 | 3.0 | 0.00 | 0.00 | 0.00 | 92 | 1016.1 |
| 20260902005204 | 63 | 233 | 2.0 | 3.0 | 0.00 | 0.00 | 0.00 | 92 | 1016.1 |
| 20260902005104 | 63 | 233 | 3.0 | 3.0 | 0.00 | 0.00 | 0.00 | 92 | 1016.1 |
| 20260902005007 | 63 | 233 | 1.0 | 3.0 | 0.00 | 0.00 | 0.00 | 92 | 1016.1 |
| 20260902004803 | 63 | 233 | 3.0 | 3.0 | 0.00 | 0.00 | 0.00 | 91 | 1016.1 |
| 20260902004706 | 63 | 233 | 2.0 | 3.0 | 0.00 | 0.00 | 0.00 | 92 | 1016.1 |
| 20260902004603 | 63 | 233 | 2.0 | 3.0 | 0.00 | 0.00 | 0.00 | 92 | 1016.1 |
| 20260902004503 | 63 | 233 | 3.0 | 3.0 | 0.00 | 0.00 | 0.00 | 91 | 1016.0 |
| 20260902004303 | 63 | 233 | 1.0 | 3.0 | 0.00 | 0.00 | 0.00 | 91 | 1016.0 |
| 20260902004203 | 63 | 233 | 2.0 | 3.0 | 0.00 | 0.00 | 0.00 | 91 | 1016.0 |
| 20260902004005 | 63 | 228 | 2.0 | 3.0 | 0.00 | 0.00 | 0.00 | 91 | 1016.0 |
| 20260902003903 | 63 | 228 | 1.0 | 3.0 | 0.00 | 0.00 | 0.00 | 91 | 1016.0 |
| 20260902003806 | 63 | 228 | 2.0 | 3.0 | 0.00 | 0.00 | 0.00 | 91 | 1015.9 |
| 20260902003703 | 63 | 228 | 2.0 | 3.0 | 0.00 | 0.00 | 0.00 | 91 | 1015.9 |
| 20260902003603 | 63 | 228 | 2.0 | 3.0 | 0.00 | 0.00 | 0.00 | 91 | 1015.9 |
| 20260902003506 | 63 | 228 | 0.0 | 3.0 | 0.00 | 0.00 | 0.00 | 91 | 1015.9 |
| 20260902003404 | 63 | 228 | 0.0 | 3.0 | 0.00 | 0.00 | 0.00 | 91 | 1016.0 |
| 20260902003206 | 64 | 228 | 2.0 | 3.0 | 0.00 | 0.00 | 0.00 | 91 | 1016.0 |
| 20260902003105 | 64 | 228 | 1.0 | 4.0 | 0.00 | 0.00 | 0.00 | 91 | 1015.9 |
| 20260902003007 | 64 | 228 | 0.0 | 4.0 | 0.00 | 0.00 | 0.00 | 91 | 1015.9 |
| 20260902002906 | 64 | 228 | 0.0 | 4.0 | 0.00 | 0.00 | 0.00 | 91 | 1015.9 |
| 20260902002803 | 64 | 228 | 1.0 | 4.0 | 0.00 | 0.00 | 0.00 | 91 | 1015.9 |
| 20260902002703 | 64 | 228 | 3.0 | 4.0 | 0.00 | 0.00 | 0.00 | 91 | 1015.9 |
| 20260902002606 | 64 | 228 | 2.0 | 4.0 | 0.00 | 0.00 | 0.00 | 91 | 1015.9 |
| 20260902002504 | 64 | 228 | 0.0 | 4.0 | 0.00 | 0.00 | 0.00 | 91 | 1016.0 |
| 20260902002403 | 64 | 228 | 2.0 | 4.0 | 0.00 | 0.00 | 0.00 | 91 | 1016.0 |
| 20260902002306 | 64 | 228 | 0.0 | 4.0 | 0.00 | 0.00 | 0.00 | 91 | 1016.0 |
| 20260902002104 | 64 | 228 | 3.0 | 4.0 | 0.00 | 0.00 | 0.00 | 91 | 1016.0 |
| 20260902002007 | 64 | 228 | 2.0 | 4.0 | 0.00 | 0.00 | 0.00 | 91 | 1016.1 |
| 20260902001904 | 64 | 228 | 0.0 | 5.0 | 0.00 | 0.00 | 0.00 | 91 | 1016.0 |
| 20260902001706 | 64 | 228 | 0.0 | 5.0 | 0.00 | 0.00 | 0.00 | 91 | 1016.0 |
| 20260902001603 | 64 | 228 | 3.0 | 5.0 | 0.00 | 0.00 | 0.00 | 91 | 1016.0 |
| 20260902001504 | 64 | 228 | 3.0 | 5.0 | 0.00 | 0.00 | 0.00 | 91 | 1016.1 |
| 20260902001303 | 64 | 228 | 1.0 | 5.0 | 0.00 | 0.00 | 0.00 | 91 | 1016.0 |
| 20260902001204 | 64 | 228 | 0.0 | 5.0 | 0.00 | 0.00 | 0.00 | 91 | 1016.0 |
| 20260902001106 | 64 | 228 | 2.0 | 5.0 | 0.00 | 0.00 | 0.00 | 91 | 1016.1 |
| 20260902001004 | 64 | 228 | 4.0 | 5.0 | 0.00 | 0.00 | 0.00 | 90 | 1016.1 |
| 20260902000905 | 64 | 228 | 3.0 | 5.0 | 0.00 | 0.00 | 0.00 | 90 | 1016.0 |
| 20260902000703 | 64 | 228 | 0.0 | 5.0 | 0.00 | 0.00 | 0.00 | 90 | 1016.0 |
| 20260902000603 | 64 | 228 | 3.0 | 5.0 | 0.00 | 0.00 | 0.00 | 90 | 1016.0 |
| 20260902000506 | 64 | 219 | 4.0 | 5.0 | 0.00 | 0.00 | 0.00 | 90 | 1016.0 |
| 20260902000406 | 64 | 269 | 5.0 | 5.0 | 0.00 | 0.00 | 0.00 | 90 | 1016.0 |
| 20260902000304 | 65 | 269 | 1.0 | 4.0 | 0.00 | 0.00 | 0.00 | 90 | 1015.9 |
| 20260902000204 | 65 | 269 | 1.0 | 4.0 | 0.00 | 0.00 | 0.00 | 90 | 1016.0 |
| 20260902000117 | 65 | 269 | 1.0 | 4.0 | 0.00 | 0.00 | 0.00 | 90 | 1015.9 |
| 20260902000006 | 65 | 269 | 2.0 | 4.0 | 0.00 | 0.00 | 0.00 | 90 | 1016.0 |
| 20260901235903 | 65 | 269 | 3.0 | 4.0 | 0.00 | 0.00 | 0.00 | 90 | 1016.0 |
| 20260901235806 | 65 | 269 | 1.0 | 4.0 | 0.00 | 0.00 | 0.00 | 90 | 1016.1 |
| 20260901235604 | 65 | 30 | 1.0 | 4.0 | 0.00 | 0.00 | 0.00 | 90 | 1016.0 |
| 20260901235507 | 65 | 30 | 0.0 | 4.0 | 0.00 | 0.00 | 0.00 | 90 | 1016.0 |
| 20260901235404 | 65 | 30 | 0.0 | 4.0 | 0.00 | 0.00 | 0.00 | 90 | 1016.0 |
| 20260901235307 | 65 | 30 | 1.0 | 4.0 | 0.00 | 0.00 | 0.00 | 90 | 1016.0 |
| 20260901235206 | 65 | 30 | 2.0 | 4.0 | 0.00 | 0.00 | 0.00 | 90 | 1016.0 |
| 20260901235103 | 65 | 30 | 3.0 | 4.0 | 0.00 | 0.00 | 0.00 | 90 | 1015.9 |
| 20260901235004 | 65 | 30 | 3.0 | 4.0 | 0.00 | 0.00 | 0.00 | 90 | 1015.9 |
| 20260901234907 | 65 | 30 | 1.0 | 4.0 | 0.00 | 0.00 | 0.00 | 90 | 1015.9 |
| 20260901234803 | 65 | 30 | 0.0 | 4.0 | 0.00 | 0.00 | 0.00 | 89 | 1016.0 |
| 20260901234703 | 65 | 30 | 3.0 | 4.0 | 0.00 | 0.00 | 0.00 | 89 | 1016.0 |
| 20260901234504 | 66 | 30 | 3.0 | 3.0 | 0.00 | 0.00 | 0.00 | 89 | 1016.0 |
| 20260901234404 | 66 | 30 | 0.0 | 2.0 | 0.00 | 0.00 | 0.00 | 89 | 1016.0 |
| 20260901234306 | 66 | 30 | 1.0 | 2.0 | 0.00 | 0.00 | 0.00 | 89 | 1015.9 |
| 20260901234204 | 66 | 30 | 0.0 | 2.0 | 0.00 | 0.00 | 0.00 | 89 | 1016.0 |
| 20260901234104 | 66 | 30 | 0.0 | 3.0 | 0.00 | 0.00 | 0.00 | 89 | 1016.0 |
| 20260901234009 | 66 | 30 | 0.0 | 3.0 | 0.00 | 0.00 | 0.00 | 89 | 1016.0 |
| 20260901233804 | 66 | 30 | 0.0 | 3.0 | 0.00 | 0.00 | 0.00 | 89 | 1016.0 |
| 20260901233706 | 66 | 30 | 0.0 | 3.0 | 0.00 | 0.00 | 0.00 | 89 | 1016.0 |
| 20260901233603 | 66 | 30 | 0.0 | 3.0 | 0.00 | 0.00 | 0.00 | 89 | 1016.0 |
| 20260901233504 | 66 | 30 | 0.0 | 3.0 | 0.00 | 0.00 | 0.00 | 89 | 1016.0 |
| 20260901233406 | 67 | 30 | 0.0 | 3.0 | 0.00 | 0.00 | 0.00 | 89 | 1015.9 |
| 20260901233303 | 67 | 30 | 0.0 | 3.0 | 0.00 | 0.00 | 0.00 | 89 | 1015.9 |
| 20260901233203 | 67 | 30 | 1.0 | 3.0 | 0.00 | 0.00 | 0.00 | 89 | 1015.9 |
| 20260901233107 | 67 | 30 | 2.0 | 3.0 | 0.00 | 0.00 | 0.00 | 89 | 1016.0 |
| 20260901232903 | 67 | 30 | 1.0 | 3.0 | 0.00 | 0.00 | 0.00 | 89 | 1016.0 |
| 20260901232806 | 67 | 30 | 0.0 | 3.0 | 0.00 | 0.00 | 0.00 | 89 | 1016.0 |
| 20260901232703 | 67 | 30 | 0.0 | 3.0 | 0.00 | 0.00 | 0.00 | 89 | 1016.0 |
| 20260901232603 | 67 | 30 | 1.0 | 4.0 | 0.00 | 0.00 | 0.00 | 89 | 1016.0 |
| 20260901232403 | 67 | 30 | 2.0 | 4.0 | 0.00 | 0.00 | 0.00 | 89 | 1016.0 |
| 20260901232306 | 67 | 30 | 2.0 | 4.0 | 0.00 | 0.00 | 0.00 | 89 | 1016.0 |
| 20260901232005 | 67 | 30 | 0.0 | 4.0 | 0.00 | 0.00 | 0.00 | 88 | 1016.0 |
| 20260901231906 | 68 | 30 | 0.0 | 4.0 | 0.00 | 0.00 | 0.00 | 89 | 1015.9 |
| 20260901231803 | 68 | 30 | 1.0 | 4.0 | 0.00 | 0.00 | 0.00 | 89 | 1016.0 |
| 20260901231703 | 68 | 30 | 3.0 | 4.0 | 0.00 | 0.00 | 0.00 | 89 | 1016.0 |
| 20260901231607 | 68 | 30 | 4.0 | 4.0 | 0.00 | 0.00 | 0.00 | 88 | 1016.0 |
| 20260901231203 | 68 | 30 | 3.0 | 3.0 | 0.00 | 0.00 | 0.00 | 87 | 1015.9 |
| 20260901231104 | 68 | 30 | 2.0 | 3.0 | 0.00 | 0.00 | 0.00 | 87 | 1016.0 |
| 20260901231006 | 68 | 30 | 2.0 | 4.0 | 0.00 | 0.00 | 0.00 | 87 | 1015.9 |
| 20260901230805 | 68 | 30 | 1.0 | 4.0 | 0.00 | 0.00 | 0.00 | 87 | 1015.9 |
| 20260901230706 | 68 | 30 | 2.0 | 4.0 | 0.00 | 0.00 | 0.00 | 87 | 1016.0 |
| 20260901230603 | 68 | 30 | 2.0 | 4.0 | 0.00 | 0.00 | 0.00 | 88 | 1015.9 |
| 20260901230504 | 68 | 30 | 1.0 | 4.0 | 0.00 | 0.00 | 0.00 | 88 | 1015.9 |
| 20260901230406 | 68 | 30 | 1.0 | 4.0 | 0.00 | 0.00 | 0.00 | 88 | 1015.9 |
| 20260901230303 | 68 | 30 | 1.0 | 4.0 | 0.00 | 0.00 | 0.00 | 88 | 1015.9 |
| 20260901230204 | 68 | 30 | 2.0 | 4.0 | 0.00 | 0.00 | 0.00 | 88 | 1016.0 |
| 20260901225904 | 69 | 30 | 3.0 | 4.0 | 0.00 | 0.00 | 0.00 | 87 | 1015.9 |
| 20260901225810 | 69 | 30 | 2.0 | 4.0 | 0.00 | 0.00 | 0.00 | 87 | 1015.9 |
| 20260901225603 | 69 | 30 | 2.0 | 5.0 | 0.00 | 0.00 | 0.00 | 87 | 1016.0 |
| 20260901225506 | 69 | 30 | 2.0 | 5.0 | 0.00 | 0.00 | 0.00 | 88 | 1015.9 |
| 20260901225403 | 69 | 30 | 2.0 | 5.0 | 0.00 | 0.00 | 0.00 | 88 | 1015.9 |
| 20260901225306 | 69 | 30 | 3.0 | 5.0 | 0.00 | 0.00 | 0.00 | 88 | 1016.0 |
| 20260901225103 | 69 | 30 | 3.0 | 5.0 | 0.00 | 0.00 | 0.00 | 88 | 1015.9 |
| 20260901225005 | 69 | 30 | 3.0 | 5.0 | 0.00 | 0.00 | 0.00 | 88 | 1015.9 |
| 20260901224906 | 69 | 30 | 3.0 | 5.0 | 0.00 | 0.00 | 0.00 | 88 | 1016.0 |
| 20260901224804 | 69 | 30 | 3.0 | 5.0 | 0.00 | 0.00 | 0.00 | 88 | 1015.9 |
| 20260901224606 | 69 | 30 | 4.0 | 5.0 | 0.00 | 0.00 | 0.00 | 88 | 1016.0 |
| 20260901224503 | 69 | 30 | 4.0 | 5.0 | 0.00 | 0.00 | 0.00 | 87 | 1016.0 |
| 20260901224403 | 69 | 30 | 3.0 | 5.0 | 0.00 | 0.00 | 0.00 | 87 | 1016.0 |
| 20260901224204 | 68 | 36 | 4.0 | 5.0 | 0.00 | 0.00 | 0.00 | 87 | 1016.0 |
| 20260901224104 | 68 | 53 | 4.0 | 5.0 | 0.00 | 0.00 | 0.00 | 87 | 1016.0 |
| 20260901224007 | 68 | 59 | 3.0 | 5.0 | 0.00 | 0.00 | 0.00 | 87 | 1016.0 |
| 20260901223706 | 68 | 350 | 3.0 | 5.0 | 0.00 | 0.00 | 0.00 | 87 | 1016.0 |
| 20260901223504 | 68 | 350 | 3.0 | 5.0 | 0.00 | 0.00 | 0.00 | 88 | 1016.0 |
| 20260901223406 | 69 | 331 | 2.0 | 5.0 | 0.00 | 0.00 | 0.00 | 88 | 1016.0 |
| 20260901223303 | 69 | 331 | 3.0 | 5.0 | 0.00 | 0.00 | 0.00 | 88 | 1015.9 |
| 20260901223106 | 68 | 346 | 3.0 | 5.0 | 0.00 | 0.00 | 0.00 | 88 | 1015.9 |
| 20260901222806 | 68 | 5 | 3.0 | 4.0 | 0.00 | 0.00 | 0.00 | 88 | 1015.9 |
| 20260901222506 | 68 | 228 | 1.0 | 2.0 | 0.00 | 0.00 | 0.00 | 89 | 1015.9 |
| 20260901222403 | 68 | 228 | 0.0 | 2.0 | 0.00 | 0.00 | 0.00 | 89 | 1015.9 |
| 20260901222306 | 68 | 228 | 0.0 | 2.0 | 0.00 | 0.00 | 0.00 | 89 | 1015.9 |
| 20260901222206 | 68 | 228 | 0.0 | 2.0 | 0.00 | 0.00 | 0.00 | 89 | 1015.9 |
| 20260901222104 | 68 | 228 | 0.0 | 2.0 | 0.00 | 0.00 | 0.00 | 89 | 1015.9 |
| 20260901222004 | 68 | 228 | 2.0 | 2.0 | 0.00 | 0.00 | 0.00 | 89 | 1015.9 |
| 20260901221906 | 68 | 228 | 1.0 | 3.0 | 0.00 | 0.00 | 0.00 | 89 | 1015.8 |
| 20260901221803 | 68 | 228 | 1.0 | 4.0 | 0.00 | 0.00 | 0.00 | 89 | 1015.8 |
| 20260901221703 | 68 | 225 | 0.0 | 4.0 | 0.00 | 0.00 | 0.00 | 88 | 1015.8 |
| 20260901221606 | 68 | 225 | 0.0 | 4.0 | 0.00 | 0.00 | 0.00 | 88 | 1015.8 |
| 20260901221503 | 68 | 225 | 0.0 | 4.0 | 0.00 | 0.00 | 0.00 | 89 | 1015.8 |
| 20260901221403 | 68 | 225 | 2.0 | 4.0 | 0.00 | 0.00 | 0.00 | 89 | 1015.8 |
| 20260901221306 | 68 | 228 | 0.0 | 5.0 | 0.00 | 0.00 | 0.00 | 89 | 1015.8 |
| 20260901221204 | 68 | 228 | 1.0 | 6.0 | 0.00 | 0.00 | 0.00 | 89 | 1015.8 |
| 20260901221103 | 68 | 204 | 2.0 | 6.0 | 0.00 | 0.00 | 0.00 | 89 | 1015.8 |
| 20260901220904 | 68 | 196 | 1.0 | 6.0 | 0.00 | 0.00 | 0.00 | 89 | 1015.8 |
| 20260901220804 | 68 | 196 | 1.0 | 6.0 | 0.00 | 0.00 | 0.00 | 89 | 1015.8 |
| 20260901220706 | 68 | 196 | 2.0 | 6.0 | 0.00 | 0.00 | 0.00 | 89 | 1015.7 |
| 20260901220603 | 68 | 194 | 3.0 | 6.0 | 0.00 | 0.00 | 0.00 | 90 | 1015.8 |
| 20260901220406 | 68 | 194 | 3.0 | 6.0 | 0.00 | 0.00 | 0.00 | 90 | 1015.8 |
| 20260901220203 | 68 | 200 | 4.0 | 6.0 | 0.00 | 0.00 | 0.00 | 90 | 1015.8 |
| 20260901220128 | 68 | 195 | 5.0 | 6.0 | 0.00 | 0.00 | 0.00 | 90 | 1015.8 |
| 20260901220022 | 68 | 195 | 6.0 | 6.0 | 0.00 | 0.00 | 0.00 | 90 | 1015.8 |
| 20260901215904 | 68 | 196 | 5.0 | 7.0 | 0.00 | 0.00 | 0.00 | 90 | 1015.8 |
| 20260901215804 | 68 | 192 | 5.0 | 7.0 | 0.00 | 0.00 | 0.00 | 90 | 1015.8 |
| 20260901215707 | 68 | 192 | 5.0 | 7.0 | 0.00 | 0.00 | 0.00 | 90 | 1015.8 |
| 20260901215605 | 68 | 190 | 5.0 | 7.0 | 0.00 | 0.00 | 0.00 | 90 | 1015.8 |
| 20260901215505 | 68 | 190 | 5.0 | 7.0 | 0.00 | 0.00 | 0.00 | 90 | 1015.8 |
| 20260901215407 | 68 | 188 | 5.0 | 7.0 | 0.00 | 0.00 | 0.00 | 90 | 1015.8 |
| 20260901215306 | 68 | 181 | 6.0 | 7.0 | 0.00 | 0.00 | 0.00 | 90 | 1015.8 |
| 20260901215204 | 68 | 184 | 6.0 | 7.0 | 0.00 | 0.00 | 0.00 | 90 | 1015.8 |
| 20260901215107 | 68 | 181 | 6.0 | 7.0 | 0.00 | 0.00 | 0.00 | 90 | 1015.8 |
| 20260901215005 | 68 | 186 | 5.0 | 7.0 | 0.00 | 0.00 | 0.00 | 90 | 1015.8 |
| 20260901214904 | 68 | 184 | 6.0 | 7.0 | 0.00 | 0.00 | 0.00 | 90 | 1015.8 |
| 20260901214705 | 68 | 186 | 7.0 | 7.0 | 0.00 | 0.00 | 0.00 | 90 | 1015.8 |
| 20260901214604 | 68 | 191 | 4.0 | 7.0 | 0.00 | 0.00 | 0.00 | 90 | 1015.8 |
| 20260901214507 | 68 | 185 | 6.0 | 7.0 | 0.00 | 0.00 | 0.00 | 90 | 1015.8 |
| 20260901214405 | 68 | 189 | 6.0 | 7.0 | 0.00 | 0.00 | 0.00 | 90 | 1015.8 |
| 20260901214305 | 68 | 188 | 6.0 | 6.0 | 0.00 | 0.00 | 0.00 | 90 | 1015.8 |
| 20260901214207 | 68 | 184 | 5.0 | 6.0 | 0.00 | 0.00 | 0.00 | 89 | 1015.8 |
| 20260901214104 | 68 | 199 | 5.0 | 5.0 | 0.00 | 0.00 | 0.00 | 89 | 1015.8 |
| 20260901213805 | 68 | 217 | 4.0 | 4.0 | 0.00 | 0.00 | 0.00 | 89 | 1015.8 |
| 20260901213704 | 68 | 217 | 3.0 | 4.0 | 0.00 | 0.00 | 0.00 | 89 | 1015.8 |
| 20260901213607 | 69 | 80 | 2.0 | 4.0 | 0.00 | 0.00 | 0.00 | 89 | 1015.8 |
| 20260901213504 | 69 | 80 | 2.0 | 4.0 | 0.00 | 0.00 | 0.00 | 89 | 1015.7 |
| 20260901213404 | 69 | 80 | 2.0 | 4.0 | 0.00 | 0.00 | 0.00 | 89 | 1015.8 |
| 20260901213307 | 69 | 80 | 2.0 | 4.0 | 0.00 | 0.00 | 0.00 | 89 | 1015.8 |
| 20260901213206 | 69 | 80 | 3.0 | 4.0 | 0.00 | 0.00 | 0.00 | 89 | 1015.8 |
| 20260901213011 | 69 | 80 | 3.0 | 3.0 | 0.00 | 0.00 | 0.00 | 89 | 1015.8 |
| 20260901212904 | 69 | 80 | 2.0 | 3.0 | 0.00 | 0.00 | 0.00 | 89 | 1015.8 |
| 20260901212804 | 69 | 80 | 1.0 | 3.0 | 0.00 | 0.00 | 0.00 | 89 | 1015.8 |
| 20260901212707 | 69 | 80 | 2.0 | 3.0 | 0.00 | 0.00 | 0.00 | 89 | 1015.8 |
| 20260901212604 | 69 | 80 | 1.0 | 3.0 | 0.00 | 0.00 | 0.00 | 89 | 1015.8 |
| 20260901212406 | 69 | 80 | 0.0 | 3.0 | 0.00 | 0.00 | 0.00 | 89 | 1015.8 |
| 20260901212306 | 69 | 80 | 2.0 | 3.0 | 0.00 | 0.00 | 0.00 | 89 | 1015.9 |
| 20260901212204 | 69 | 80 | 1.0 | 4.0 | 0.00 | 0.00 | 0.00 | 89 | 1015.8 |
| 20260901212107 | 69 | 80 | 0.0 | 4.0 | 0.00 | 0.00 | 0.00 | 89 | 1015.8 |
| 20260901212005 | 69 | 80 | 0.0 | 4.0 | 0.00 | 0.00 | 0.00 | 89 | 1015.8 |
| 20260901211904 | 69 | 80 | 0.0 | 4.0 | 0.00 | 0.00 | 0.00 | 89 | 1015.8 |
| 20260901211808 | 69 | 80 | 0.0 | 4.0 | 0.00 | 0.00 | 0.00 | 89 | 1015.8 |
| 20260901211704 | 69 | 80 | 1.0 | 4.0 | 0.00 | 0.00 | 0.00 | 89 | 1015.8 |
| 20260901211604 | 69 | 80 | 1.0 | 4.0 | 0.00 | 0.00 | 0.00 | 89 | 1015.8 |
| 20260901211404 | 69 | 80 | 2.0 | 4.0 | 0.00 | 0.00 | 0.00 | 89 | 1015.8 |
| 20260901211208 | 70 | 80 | 3.0 | 5.0 | 0.00 | 0.00 | 0.00 | 89 | 1015.7 |
| 20260901211104 | 70 | 80 | 5.0 | 5.0 | 0.00 | 0.00 | 0.00 | 89 | 1015.7 |
| 20260901211005 | 70 | 80 | 3.0 | 3.0 | 0.00 | 0.00 | 0.00 | 89 | 1015.7 |
| 20260901210907 | 70 | 80 | 2.0 | 3.0 | 0.00 | 0.00 | 0.00 | 89 | 1015.7 |
| 20260901210804 | 70 | 80 | 2.0 | 3.0 | 0.00 | 0.00 | 0.00 | 89 | 1015.7 |
| 20260901210607 | 70 | 80 | 2.0 | 3.0 | 0.00 | 0.00 | 0.00 | 89 | 1015.7 |
| 20260901210505 | 70 | 80 | 3.0 | 3.0 | 0.00 | 0.00 | 0.00 | 89 | 1015.7 |
| 20260901210404 | 70 | 80 | 3.0 | 3.0 | 0.00 | 0.00 | 0.00 | 89 | 1015.8 |
| 20260901210307 | 70 | 80 | 2.0 | 3.0 | 0.00 | 0.00 | 0.00 | 89 | 1015.7 |
| 20260901210204 | 70 | 80 | 2.0 | 3.0 | 0.00 | 0.00 | 0.00 | 88 | 1015.8 |
| 20260901210104 | 70 | 80 | 1.0 | 3.0 | 0.00 | 0.00 | 0.00 | 88 | 1015.7 |
| 20260901210012 | 70 | 80 | 1.0 | 3.0 | 0.00 | 0.00 | 0.00 | 88 | 1015.7 |
| 20260901205904 | 70 | 80 | 2.0 | 3.0 | 0.00 | 0.00 | 0.00 | 87 | 1015.7 |
| 20260901205805 | 70 | 80 | 2.0 | 2.0 | 0.00 | 0.00 | 0.00 | 87 | 1015.7 |
| 20260901205708 | 70 | 80 | 2.0 | 2.0 | 0.00 | 0.00 | 0.00 | 87 | 1015.7 |
| 20260901205604 | 70 | 80 | 2.0 | 2.0 | 0.00 | 0.00 | 0.00 | 88 | 1015.8 |
| 20260901205504 | 70 | 80 | 1.0 | 2.0 | 0.00 | 0.00 | 0.00 | 88 | 1015.7 |
| 20260901205407 | 70 | 80 | 1.0 | 1.0 | 0.00 | 0.00 | 0.00 | 87 | 1015.7 |
| 20260901205306 | 70 | 80 | 0.0 | 1.0 | 0.00 | 0.00 | 0.00 | 87 | 1015.7 |
| 20260901205204 | 70 | 80 | 0.0 | 2.0 | 0.00 | 0.00 | 0.00 | 87 | 1015.7 |
| 20260901205108 | 70 | 80 | 0.0 | 2.0 | 0.00 | 0.00 | 0.00 | 87 | 1015.7 |
| 20260901205010 | 70 | 80 | 1.0 | 2.0 | 0.00 | 0.00 | 0.00 | 87 | 1015.7 |
| 20260901204904 | 70 | 80 | 1.0 | 2.0 | 0.00 | 0.00 | 0.00 | 87 | 1015.7 |
| 20260901204807 | 70 | 80 | 1.0 | 2.0 | 0.00 | 0.00 | 0.00 | 87 | 1015.7 |
| 20260901204705 | 70 | 80 | 1.0 | 3.0 | 0.00 | 0.00 | 0.00 | 88 | 1015.7 |
| 20260901204604 | 70 | 80 | 1.0 | 3.0 | 0.00 | 0.00 | 0.00 | 87 | 1015.7 |
| 20260901204508 | 71 | 80 | 0.0 | 3.0 | 0.00 | 0.00 | 0.00 | 88 | 1015.7 |
| 20260901204304 | 71 | 80 | 1.0 | 3.0 | 0.00 | 0.00 | 0.00 | 88 | 1015.7 |
| 20260901204207 | 71 | 80 | 2.0 | 4.0 | 0.00 | 0.00 | 0.00 | 88 | 1015.7 |
| 20260901204005 | 71 | 80 | 1.0 | 4.0 | 0.00 | 0.00 | 0.00 | 88 | 1015.6 |
| 20260901203805 | 71 | 80 | 2.0 | 4.0 | 0.00 | 0.00 | 0.00 | 88 | 1015.6 |
| 20260901203704 | 71 | 80 | 2.0 | 4.0 | 0.00 | 0.00 | 0.00 | 88 | 1015.6 |
| 20260901203607 | 71 | 80 | 1.0 | 4.0 | 0.00 | 0.00 | 0.00 | 88 | 1015.6 |
| 20260901203504 | 71 | 80 | 0.0 | 4.0 | 0.00 | 0.00 | 0.00 | 88 | 1015.6 |
| 20260901203404 | 71 | 80 | 1.0 | 4.0 | 0.00 | 0.00 | 0.00 | 88 | 1015.6 |
| 20260901203307 | 71 | 80 | 2.0 | 4.0 | 0.00 | 0.00 | 0.00 | 88 | 1015.6 |
| 20260901203204 | 71 | 80 | 3.0 | 5.0 | 0.00 | 0.00 | 0.00 | 88 | 1015.5 |
| 20260901203104 | 71 | 80 | 3.0 | 5.0 | 0.00 | 0.00 | 0.00 | 88 | 1015.6 |
| 20260901202904 | 71 | 80 | 3.0 | 3.0 | 0.00 | 0.00 | 0.00 | 88 | 1015.6 |
| 20260901202804 | 71 | 80 | 2.0 | 3.0 | 0.00 | 0.00 | 0.00 | 88 | 1015.6 |
| 20260901202708 | 71 | 80 | 2.0 | 3.0 | 0.00 | 0.00 | 0.00 | 88 | 1015.6 |
| 20260901202505 | 71 | 80 | 2.0 | 3.0 | 0.00 | 0.00 | 0.00 | 88 | 1015.6 |
| 20260901202407 | 71 | 80 | 3.0 | 3.0 | 0.00 | 0.00 | 0.00 | 88 | 1015.6 |
| 20260901202306 | 71 | 80 | 2.0 | 3.0 | 0.00 | 0.00 | 0.00 | 88 | 1015.6 |
| 20260901202205 | 71 | 80 | 1.0 | 3.0 | 0.00 | 0.00 | 0.00 | 88 | 1015.6 |
| 20260901202104 | 71 | 80 | 2.0 | 3.0 | 0.00 | 0.00 | 0.00 | 88 | 1015.5 |
| 20260901201904 | 71 | 80 | 0.0 | 3.0 | 0.00 | 0.00 | 0.00 | 88 | 1015.6 |
| 20260901201805 | 71 | 80 | 1.0 | 3.0 | 0.00 | 0.00 | 0.00 | 88 | 1015.5 |
| 20260901201706 | 71 | 80 | 2.0 | 3.0 | 0.00 | 0.00 | 0.00 | 88 | 1015.6 |
| 20260901201605 | 71 | 80 | 2.0 | 3.0 | 0.00 | 0.00 | 0.00 | 87 | 1015.5 |
| 20260901201504 | 71 | 80 | 1.0 | 4.0 | 0.00 | 0.00 | 0.00 | 87 | 1015.6 |
| 20260901201407 | 71 | 80 | 2.0 | 4.0 | 0.00 | 0.00 | 0.00 | 87 | 1015.6 |
| 20260901201304 | 71 | 80 | 2.0 | 4.0 | 0.00 | 0.00 | 0.00 | 87 | 1015.6 |
| 20260901201206 | 71 | 80 | 2.0 | 4.0 | 0.00 | 0.00 | 0.00 | 87 | 1015.6 |
| 20260901201108 | 71 | 80 | 2.0 | 4.0 | 0.00 | 0.00 | 0.00 | 87 | 1015.6 |
| 20260901200904 | 71 | 80 | 1.0 | 4.0 | 0.00 | 0.00 | 0.00 | 87 | 1015.6 |
| 20260901200809 | 71 | 80 | 2.0 | 4.0 | 0.00 | 0.00 | 0.00 | 87 | 1015.6 |
| 20260901200705 | 71 | 80 | 2.0 | 4.0 | 0.00 | 0.00 | 0.00 | 87 | 1015.6 |
| 20260901200604 | 71 | 80 | 3.0 | 4.0 | 0.00 | 0.00 | 0.00 | 87 | 1015.6 |
| 20260901200405 | 72 | 80 | 5.0 | 5.0 | 0.00 | 0.00 | 0.00 | 86 | 1015.6 |
| 20260901200207 | 72 | 80 | 3.0 | 3.0 | 0.00 | 0.00 | 0.00 | 87 | 1015.6 |
| 20260901200121 | 72 | 80 | 2.0 | 3.0 | 0.00 | 0.00 | 0.00 | 87 | 1015.6 |
| 20260901200008 | 72 | 80 | 2.0 | 3.0 | 0.00 | 0.00 | 0.00 | 87 | 1015.6 |
| 20260901195908 | 72 | 80 | 2.0 | 3.0 | 0.00 | 0.00 | 0.00 | 87 | 1015.7 |
| 20260901195705 | 72 | 80 | 1.0 | 4.0 | 0.00 | 0.00 | 0.00 | 87 | 1015.7 |
| 20260901195608 | 72 | 80 | 0.0 | 4.0 | 0.00 | 0.00 | 0.00 | 87 | 1015.7 |
| 20260901195505 | 72 | 80 | 0.0 | 4.0 | 0.00 | 0.00 | 0.00 | 87 | 1015.7 |
| 20260901195405 | 72 | 80 | 1.0 | 4.0 | 0.00 | 0.00 | 0.00 | 87 | 1015.6 |
| 20260901195205 | 72 | 80 | 2.0 | 4.0 | 0.00 | 0.00 | 0.00 | 86 | 1015.6 |
| 20260901195106 | 72 | 80 | 2.0 | 4.0 | 0.00 | 0.00 | 0.00 | 86 | 1015.5 |
| 20260901195009 | 72 | 80 | 2.0 | 4.0 | 0.00 | 0.00 | 0.00 | 86 | 1015.5 |
| 20260901194905 | 72 | 80 | 3.0 | 4.0 | 0.00 | 0.00 | 0.00 | 86 | 1015.5 |
| 20260901194807 | 72 | 80 | 3.0 | 5.0 | 0.00 | 0.00 | 0.00 | 86 | 1015.5 |
| 20260901194708 | 72 | 80 | 3.0 | 5.0 | 0.00 | 0.00 | 0.00 | 86 | 1015.5 |
| 20260901194604 | 72 | 80 | 3.0 | 5.0 | 0.00 | 0.00 | 0.00 | 86 | 1015.5 |
| 20260901194505 | 72 | 80 | 3.0 | 3.0 | 0.00 | 0.00 | 0.00 | 86 | 1015.5 |
| 20260901194407 | 72 | 80 | 1.0 | 1.0 | 0.00 | 0.00 | 0.00 | 86 | 1015.5 |
| 20260901194305 | 72 | 80 | 0.0 | 0.0 | 0.00 | 0.00 | 0.00 | 86 | 1015.6 |
| 20260901194204 | 73 | 80 | 0.0 | 0.0 | 0.00 | 0.00 | 0.00 | 86 | 1015.6 |
| 20260901194108 | 73 | 80 | 0.0 | 0.0 | 0.00 | 0.00 | 0.00 | 85 | 1015.6 |
| 20260901193906 | 73 | 80 | 0.0 | 1.0 | 0.00 | 0.00 | 0.00 | 85 | 1015.6 |
| 20260901193808 | 73 | 80 | 0.0 | 2.0 | 0.00 | 0.00 | 0.00 | 85 | 1015.6 |
| 20260901193705 | 73 | 80 | 0.0 | 2.0 | 0.00 | 0.00 | 0.00 | 85 | 1015.7 |
| 20260901193604 | 73 | 80 | 0.0 | 2.0 | 0.00 | 0.00 | 0.00 | 85 | 1015.6 |
| 20260901193507 | 73 | 80 | 0.0 | 2.0 | 0.00 | 0.00 | 0.00 | 85 | 1015.7 |
| 20260901193406 | 73 | 80 | 0.0 | 2.0 | 0.00 | 0.00 | 0.00 | 85 | 1015.7 |
| 20260901193305 | 73 | 80 | 0.0 | 2.0 | 0.00 | 0.00 | 0.00 | 85 | 1015.7 |
| 20260901193207 | 73 | 80 | 0.0 | 2.0 | 0.00 | 0.00 | 0.00 | 85 | 1015.7 |
| 20260901193006 | 73 | 80 | 0.0 | 2.0 | 0.00 | 0.00 | 0.00 | 85 | 1015.6 |
| 20260901192804 | 73 | 80 | 1.0 | 2.0 | 0.00 | 0.00 | 0.00 | 84 | 1015.6 |
| 20260901192705 | 73 | 80 | 1.0 | 2.0 | 0.00 | 0.00 | 0.00 | 84 | 1015.6 |
| 20260901192607 | 73 | 80 | 1.0 | 2.0 | 0.00 | 0.00 | 0.00 | 84 | 1015.5 |
| 20260901192505 | 74 | 80 | 1.0 | 2.0 | 0.00 | 0.00 | 0.00 | 84 | 1015.5 |
| 20260901192419 | 74 | 80 | 2.0 | 2.0 | 0.00 | 0.00 | 0.00 | 84 | 1015.5 |
| 20260901192307 | 74 | 80 | 1.0 | 2.0 | 0.00 | 0.00 | 0.00 | 84 | 1015.5 |
| 20260901192204 | 74 | 80 | 0.0 | 2.0 | 0.00 | 0.00 | 0.00 | 84 | 1015.5 |
| 20260901192104 | 74 | 80 | 0.0 | 2.0 | 0.00 | 0.00 | 0.00 | 84 | 1015.4 |
| 20260901192009 | 74 | 80 | 0.0 | 2.0 | 0.00 | 0.00 | 0.00 | 84 | 1015.4 |
| 20260901191708 | 74 | 80 | 1.0 | 2.0 | 0.00 | 0.00 | 0.00 | 84 | 1015.4 |
| 20260901191605 | 74 | 80 | 0.0 | 2.0 | 0.00 | 0.00 | 0.00 | 83 | 1015.4 |
| 20260901191505 | 74 | 80 | 0.0 | 2.0 | 0.00 | 0.00 | 0.00 | 83 | 1015.4 |
| 20260901191410 | 75 | 80 | 0.0 | 2.0 | 0.00 | 0.00 | 0.00 | 83 | 1015.4 |
| 20260901191305 | 75 | 80 | 0.0 | 2.0 | 0.00 | 0.00 | 0.00 | 83 | 1015.4 |
| 20260901191205 | 75 | 80 | 1.0 | 2.0 | 0.00 | 0.00 | 0.00 | 83 | 1015.4 |
| 20260901191107 | 75 | 80 | 2.0 | 2.0 | 0.00 | 0.00 | 0.00 | 83 | 1015.4 |
| 20260901191007 | 75 | 80 | 1.0 | 2.0 | 0.00 | 0.00 | 0.00 | 82 | 1015.4 |
| 20260901190912 | 75 | 80 | 0.0 | 2.0 | 0.00 | 0.00 | 0.00 | 82 | 1015.4 |
| 20260901190807 | 75 | 80 | 1.0 | 2.0 | 0.00 | 0.00 | 0.00 | 82 | 1015.3 |
| 20260901190705 | 75 | 80 | 1.0 | 2.0 | 0.00 | 0.00 | 0.00 | 82 | 1015.3 |
| 20260901190607 | 75 | 80 | 1.0 | 2.0 | 0.00 | 0.00 | 0.00 | 82 | 1015.3 |
| 20260901190406 | 75 | 80 | 1.0 | 2.0 | 0.00 | 0.00 | 0.00 | 82 | 1015.3 |
| 20260901190305 | 76 | 80 | 1.0 | 1.0 | 0.00 | 0.00 | 0.00 | 81 | 1015.2 |
| 20260901190208 | 76 | 80 | 1.0 | 1.0 | 0.00 | 0.00 | 0.00 | 81 | 1015.2 |
| 20260901190010 | 76 | 80 | 0.0 | 2.0 | 0.00 | 0.00 | 0.00 | 81 | 1015.2 |
| 20260901185907 | 76 | 80 | 1.0 | 2.0 | 0.00 | 0.00 | 0.00 | 81 | 1015.1 |
| 20260901185805 | 76 | 80 | 0.0 | 3.0 | 0.00 | 0.00 | 0.00 | 80 | 1015.0 |
| 20260901185705 | 76 | 80 | 0.0 | 3.0 | 0.00 | 0.00 | 0.00 | 80 | 1015.0 |
| 20260901185608 | 76 | 80 | 0.0 | 3.0 | 0.00 | 0.00 | 0.00 | 80 | 1015.1 |
| 20260901185506 | 77 | 80 | 0.0 | 3.0 | 0.00 | 0.00 | 0.00 | 80 | 1015.0 |
| 20260901185403 | 77 | 80 | 1.0 | 3.0 | 0.00 | 0.00 | 0.00 | 79 | 1015.0 |
| 20260901185307 | 77 | 80 | 1.0 | 3.0 | 0.00 | 0.00 | 0.00 | 79 | 1015.0 |
| 20260901185205 | 77 | 80 | 1.0 | 3.0 | 0.00 | 0.00 | 0.00 | 78 | 1015.0 |
| 20260901185104 | 77 | 80 | 1.0 | 3.0 | 0.00 | 0.00 | 0.00 | 78 | 1015.0 |
| 20260901185007 | 77 | 80 | 1.0 | 3.0 | 0.00 | 0.00 | 0.00 | 78 | 1015.0 |
| 20260901184905 | 77 | 80 | 0.0 | 3.0 | 0.00 | 0.00 | 0.00 | 78 | 1015.0 |
| 20260901184708 | 78 | 80 | 3.0 | 3.0 | 0.00 | 0.00 | 0.00 | 78 | 1014.9 |
| 20260901184407 | 78 | 80 | 2.0 | 4.0 | 0.00 | 0.00 | 0.00 | 77 | 1014.8 |
| 20260901184305 | 78 | 80 | 1.0 | 4.0 | 0.00 | 0.00 | 0.00 | 77 | 1014.8 |
| 20260901184204 | 78 | 80 | 2.0 | 4.0 | 0.00 | 0.00 | 0.00 | 77 | 1014.8 |
| 20260901184005 | 78 | 80 | 2.0 | 4.0 | 0.00 | 0.00 | 0.00 | 77 | 1014.8 |
| 20260901183904 | 78 | 80 | 1.0 | 4.0 | 0.00 | 0.00 | 0.00 | 77 | 1014.8 |
| 20260901183806 | 78 | 80 | 2.0 | 4.0 | 0.00 | 0.00 | 0.00 | 77 | 1014.8 |
| 20260901183704 | 78 | 80 | 2.0 | 5.0 | 0.00 | 0.00 | 0.00 | 77 | 1014.8 |
| 20260901183604 | 78 | 80 | 3.0 | 5.0 | 0.00 | 0.00 | 0.00 | 77 | 1014.8 |
| 20260901183511 | 78 | 80 | 5.0 | 7.0 | 0.00 | 0.00 | 0.00 | 77 | 1014.8 |
| 20260901183305 | 79 | 80 | 3.0 | 7.0 | 0.00 | 0.00 | 0.00 | 77 | 1014.8 |
| 20260901183207 | 79 | 80 | 3.0 | 7.0 | 0.00 | 0.00 | 0.00 | 76 | 1014.7 |
| 20260901183105 | 79 | 80 | 2.0 | 8.0 | 0.00 | 0.00 | 0.00 | 76 | 1014.8 |
| 20260901183004 | 79 | 80 | 2.0 | 8.0 | 0.00 | 0.00 | 0.00 | 76 | 1014.8 |
| 20260901182804 | 79 | 80 | 5.0 | 8.0 | 0.00 | 0.00 | 0.00 | 76 | 1014.8 |
| 20260901182607 | 79 | 80 | 5.0 | 8.0 | 0.00 | 0.00 | 0.00 | 76 | 1014.8 |
| 20260901182504 | 79 | 80 | 6.0 | 8.0 | 0.00 | 0.00 | 0.00 | 76 | 1014.8 |
| 20260901182404 | 79 | 80 | 5.0 | 8.0 | 0.00 | 0.00 | 0.00 | 75 | 1014.8 |
| 20260901182308 | 79 | 80 | 5.0 | 8.0 | 0.00 | 0.00 | 0.00 | 75 | 1014.8 |
| 20260901182203 | 79 | 80 | 5.0 | 8.0 | 0.00 | 0.00 | 0.00 | 75 | 1014.8 |
| 20260901182007 | 79 | 69 | 4.0 | 7.0 | 0.00 | 0.00 | 0.00 | 74 | 1014.8 |
| 20260901181904 | 79 | 69 | 3.0 | 7.0 | 0.00 | 0.00 | 0.00 | 74 | 1014.8 |
| 20260901181804 | 79 | 69 | 4.0 | 7.0 | 0.00 | 0.00 | 0.00 | 74 | 1014.8 |
| 20260901181707 | 79 | 69 | 3.0 | 5.0 | 0.00 | 0.00 | 0.00 | 74 | 1014.7 |
| 20260901181606 | 79 | 69 | 3.0 | 5.0 | 0.00 | 0.00 | 0.00 | 74 | 1014.8 |
| 20260901181505 | 80 | 69 | 4.0 | 5.0 | 0.00 | 0.00 | 0.00 | 74 | 1014.8 |
| 20260901181304 | 80 | 69 | 2.0 | 9.0 | 0.00 | 0.00 | 0.00 | 74 | 1014.9 |
| 20260901181205 | 80 | 69 | 3.0 | 9.0 | 0.00 | 0.00 | 0.00 | 74 | 1014.9 |
| 20260901181005 | 80 | 57 | 2.0 | 9.0 | 0.00 | 0.00 | 0.00 | 74 | 1014.9 |
| 20260901180904 | 80 | 63 | 3.0 | 9.0 | 0.00 | 0.00 | 0.00 | 74 | 1014.9 |
| 20260901180806 | 80 | 63 | 3.0 | 9.0 | 0.00 | 0.00 | 0.00 | 74 | 1014.8 |
| 20260901180706 | 80 | 35 | 3.0 | 9.0 | 0.00 | 0.00 | 0.00 | 74 | 1014.8 |
| 20260901180507 | 80 | 78 | 4.0 | 9.0 | 0.00 | 0.00 | 0.00 | 73 | 1014.7 |
| 20260901180404 | 80 | 75 | 9.0 | 9.0 | 0.00 | 0.00 | 0.00 | 73 | 1014.6 |
| 20260901180305 | 80 | 68 | 5.0 | 9.0 | 0.00 | 0.00 | 0.00 | 73 | 1014.6 |
| 20260901180207 | 80 | 74 | 4.0 | 9.0 | 0.00 | 0.00 | 0.00 | 73 | 1014.6 |
| 20260901180129 | 80 | 81 | 5.0 | 9.0 | 0.00 | 0.00 | 0.00 | 72 | 1014.7 |
| 20260901180007 | 80 | 49 | 5.0 | 9.0 | 0.00 | 0.00 | 0.00 | 72 | 1014.6 |
| 20260901175907 | 80 | 26 | 6.0 | 9.0 | 0.00 | 0.00 | 0.00 | 72 | 1014.6 |
| 20260901175803 | 80 | 59 | 5.0 | 9.0 | 0.00 | 0.00 | 0.00 | 72 | 1014.6 |
| 20260901175703 | 81 | 71 | 7.0 | 9.0 | 0.00 | 0.00 | 0.00 | 72 | 1014.6 |
| 20260901175405 | 81 | 88 | 6.0 | 9.0 | 0.00 | 0.00 | 0.00 | 71 | 1014.6 |
| 20260901175307 | 81 | 74 | 7.0 | 10.0 | 0.00 | 0.00 | 0.00 | 71 | 1014.6 |
| 20260901175205 | 81 | 74 | 2.0 | 10.0 | 0.00 | 0.00 | 0.00 | 71 | 1014.6 |
| 20260901175009 | 81 | 74 | 5.0 | 10.0 | 0.00 | 0.00 | 0.00 | 71 | 1014.6 |
| 20260901174905 | 81 | 81 | 5.0 | 10.0 | 0.00 | 0.00 | 0.00 | 71 | 1014.6 |
| 20260901174804 | 81 | 70 | 5.0 | 10.0 | 0.00 | 0.00 | 0.00 | 71 | 1014.6 |
| 20260901174707 | 81 | 61 | 7.0 | 10.0 | 0.00 | 0.00 | 0.00 | 71 | 1014.6 |
| 20260901174505 | 81 | 119 | 7.0 | 10.0 | 0.00 | 0.00 | 0.00 | 70 | 1014.5 |
| 20260901174407 | 81 | 79 | 6.0 | 10.0 | 0.00 | 0.00 | 0.00 | 70 | 1014.5 |
| 20260901174304 | 81 | 75 | 10.0 | 12.0 | 0.00 | 0.00 | 0.00 | 70 | 1014.6 |
| 20260901174204 | 81 | 76 | 5.0 | 12.0 | 0.00 | 0.00 | 0.00 | 69 | 1014.6 |
| 20260901174106 | 81 | 74 | 4.0 | 12.0 | 0.00 | 0.00 | 0.00 | 69 | 1014.6 |
| 20260901174006 | 81 | 78 | 5.0 | 12.0 | 0.00 | 0.00 | 0.00 | 69 | 1014.6 |
| 20260901173807 | 82 | 76 | 7.0 | 12.0 | 0.00 | 0.00 | 0.00 | 69 | 1014.6 |
| 20260901173704 | 82 | 40 | 4.0 | 12.0 | 0.00 | 0.00 | 0.00 | 69 | 1014.6 |
| 20260901173605 | 82 | 57 | 8.0 | 12.0 | 0.00 | 0.00 | 0.00 | 69 | 1014.6 |
| 20260901173506 | 82 | 34 | 5.0 | 12.0 | 0.00 | 0.00 | 0.00 | 69 | 1014.6 |
| 20260901173305 | 82 | 67 | 10.0 | 12.0 | 0.00 | 0.00 | 0.00 | 68 | 1014.6 |
| 20260901173208 | 82 | 63 | 10.0 | 12.0 | 0.00 | 0.00 | 0.00 | 68 | 1014.6 |
| 20260901173104 | 82 | 60 | 7.0 | 12.0 | 0.00 | 0.00 | 0.00 | 67 | 1014.6 |
| 20260901173005 | 82 | 82 | 11.0 | 12.0 | 0.00 | 0.00 | 0.00 | 67 | 1014.6 |
| 20260901172906 | 82 | 71 | 5.0 | 12.0 | 0.00 | 0.00 | 0.00 | 67 | 1014.6 |
| 20260901172803 | 82 | 74 | 9.0 | 12.0 | 0.00 | 0.00 | 0.00 | 67 | 1014.6 |
| 20260901172607 | 83 | 79 | 6.0 | 12.0 | 0.00 | 0.00 | 0.00 | 66 | 1014.5 |
| 20260901172504 | 83 | 50 | 6.0 | 12.0 | 0.00 | 0.00 | 0.00 | 66 | 1014.6 |
| 20260901172404 | 83 | 56 | 8.0 | 12.0 | 0.00 | 0.00 | 0.00 | 65 | 1014.5 |
| 20260901172206 | 83 | 63 | 8.0 | 12.0 | 0.00 | 0.00 | 0.00 | 65 | 1014.6 |
| 20260901172104 | 83 | 85 | 11.0 | 13.0 | 0.00 | 0.00 | 0.00 | 65 | 1014.5 |
| 20260901172008 | 83 | 77 | 8.0 | 11.0 | 0.00 | 0.00 | 0.00 | 65 | 1014.5 |
| 20260901171804 | 83 | 74 | 7.0 | 11.0 | 0.00 | 0.00 | 0.00 | 64 | 1014.5 |
| 20260901171708 | 83 | 70 | 4.0 | 11.0 | 0.00 | 0.00 | 0.00 | 64 | 1014.5 |
| 20260901171505 | 84 | 73 | 7.0 | 11.0 | 0.00 | 0.00 | 0.00 | 64 | 1014.4 |
| 20260901171406 | 84 | 78 | 5.0 | 11.0 | 0.00 | 0.00 | 0.00 | 63 | 1014.5 |
| 20260901171304 | 84 | 39 | 3.0 | 11.0 | 0.00 | 0.00 | 0.00 | 63 | 1014.5 |
| 20260901171204 | 84 | 78 | 10.0 | 12.0 | 0.00 | 0.00 | 0.00 | 62 | 1014.5 |
| 20260901171005 | 84 | 82 | 5.0 | 12.0 | 0.00 | 0.00 | 0.00 | 62 | 1014.4 |
| 20260901170807 | 84 | 91 | 6.0 | 12.0 | 0.00 | 0.00 | 0.00 | 61 | 1014.4 |
| 20260901170704 | 84 | 78 | 4.0 | 13.0 | 0.00 | 0.00 | 0.00 | 61 | 1014.4 |
| 20260901170604 | 84 | 90 | 9.0 | 13.0 | 0.00 | 0.00 | 0.00 | 61 | 1014.4 |
| 20260901170405 | 84 | 77 | 11.0 | 13.0 | 0.00 | 0.00 | 0.00 | 60 | 1014.4 |
| 20260901170304 | 84 | 44 | 7.0 | 13.0 | 0.00 | 0.00 | 0.00 | 60 | 1014.4 |
| 20260901170207 | 85 | 67 | 5.0 | 13.0 | 0.00 | 0.00 | 0.00 | 59 | 1014.4 |
| 20260901170105 | 85 | 55 | 7.0 | 13.0 | 0.00 | 0.00 | 0.00 | 59 | 1014.4 |
| 20260901170007 | 85 | 72 | 11.0 | 13.0 | 0.00 | 0.00 | 0.00 | 59 | 1014.4 |
| 20260901165703 | 85 | 71 | 9.0 | 14.0 | 0.00 | 0.00 | 0.00 | 59 | 1014.4 |
| 20260901165607 | 85 | 75 | 8.0 | 14.0 | 0.00 | 0.00 | 0.00 | 59 | 1014.4 |
| 20260901165404 | 85 | 83 | 9.0 | 14.0 | 0.00 | 0.00 | 0.00 | 59 | 1014.5 |
| 20260901165308 | 85 | 56 | 7.0 | 14.0 | 0.00 | 0.00 | 0.00 | 59 | 1014.4 |
| 20260901165204 | 85 | 54 | 8.0 | 14.0 | 0.00 | 0.00 | 0.00 | 59 | 1014.5 |
| 20260901165106 | 85 | 88 | 10.0 | 14.0 | 0.00 | 0.00 | 0.00 | 59 | 1014.5 |
| 20260901165009 | 85 | 81 | 7.0 | 14.0 | 0.00 | 0.00 | 0.00 | 59 | 1014.5 |
| 20260901164904 | 85 | 78 | 5.0 | 14.0 | 0.00 | 0.00 | 0.00 | 59 | 1014.4 |
| 20260901164803 | 85 | 70 | 9.0 | 14.0 | 0.00 | 0.00 | 0.00 | 58 | 1014.4 |
| 20260901164706 | 85 | 88 | 14.0 | 14.0 | 0.00 | 0.00 | 0.00 | 58 | 1014.4 |
| 20260901164604 | 85 | 65 | 11.0 | 14.0 | 0.00 | 0.00 | 0.00 | 58 | 1014.5 |
| 20260901164407 | 85 | 69 | 9.0 | 13.0 | 0.00 | 0.00 | 0.00 | 57 | 1014.5 |
| 20260901164304 | 85 | 55 | 7.0 | 13.0 | 0.00 | 0.00 | 0.00 | 57 | 1014.5 |
| 20260901164204 | 85 | 69 | 7.0 | 13.0 | 0.00 | 0.00 | 0.00 | 57 | 1014.5 |
| 20260901164108 | 85 | 44 | 6.0 | 13.0 | 0.00 | 0.00 | 0.00 | 57 | 1014.5 |
| 20260901163904 | 86 | 39 | 8.0 | 13.0 | 0.00 | 0.00 | 0.00 | 57 | 1014.5 |
| 20260901163704 | 86 | 80 | 11.0 | 13.0 | 0.00 | 0.00 | 0.00 | 57 | 1014.5 |
| 20260901163604 | 86 | 86 | 8.0 | 13.0 | 0.00 | 0.00 | 0.00 | 56 | 1014.5 |
| 20260901163507 | 86 | 41 | 5.0 | 13.0 | 0.00 | 0.00 | 0.00 | 56 | 1014.6 |
| 20260901163404 | 86 | 67 | 3.0 | 13.0 | 0.00 | 0.00 | 0.00 | 56 | 1014.6 |
| 20260901163304 | 86 | 39 | 3.0 | 13.0 | 0.00 | 0.00 | 0.00 | 56 | 1014.5 |
| 20260901163208 | 86 | 90 | 5.0 | 13.0 | 0.00 | 0.00 | 0.00 | 56 | 1014.5 |
| 20260901163105 | 86 | 76 | 10.0 | 13.0 | 0.00 | 0.00 | 0.00 | 56 | 1014.6 |
| 20260901162907 | 86 | 74 | 7.0 | 11.0 | 0.00 | 0.00 | 0.00 | 55 | 1014.6 |
| 20260901162803 | 86 | 62 | 5.0 | 11.0 | 0.00 | 0.00 | 0.00 | 56 | 1014.7 |
| 20260901162704 | 86 | 82 | 6.0 | 11.0 | 0.00 | 0.00 | 0.00 | 56 | 1014.7 |
| 20260901162607 | 86 | 72 | 4.0 | 11.0 | 0.00 | 0.00 | 0.00 | 56 | 1014.6 |
| 20260901162504 | 86 | 84 | 3.0 | 13.0 | 0.00 | 0.00 | 0.00 | 57 | 1014.6 |
| 20260901162405 | 86 | 103 | 7.0 | 13.0 | 0.00 | 0.00 | 0.00 | 57 | 1014.7 |
| 20260901162205 | 86 | 96 | 6.0 | 13.0 | 0.00 | 0.00 | 0.00 | 57 | 1014.6 |
| 20260901162105 | 86 | 88 | 6.0 | 13.0 | 0.00 | 0.00 | 0.00 | 56 | 1014.6 |
| 20260901162008 | 86 | 84 | 9.0 | 13.0 | 0.00 | 0.00 | 0.00 | 56 | 1014.6 |
| 20260901161903 | 86 | 113 | 7.0 | 13.0 | 0.00 | 0.00 | 0.00 | 57 | 1014.6 |
| 20260901161805 | 86 | 93 | 6.0 | 13.0 | 0.00 | 0.00 | 0.00 | 56 | 1014.6 |
| 20260901161603 | 86 | 61 | 7.0 | 13.0 | 0.00 | 0.00 | 0.00 | 56 | 1014.6 |
| 20260901161505 | 86 | 94 | 13.0 | 13.0 | 0.00 | 0.00 | 0.00 | 56 | 1014.6 |
| 20260901161407 | 86 | 72 | 7.0 | 13.0 | 0.00 | 0.00 | 0.00 | 56 | 1014.6 |
| 20260901161305 | 86 | 79 | 9.0 | 13.0 | 0.00 | 0.00 | 0.00 | 55 | 1014.6 |
| 20260901161205 | 86 | 73 | 10.0 | 12.0 | 0.00 | 0.00 | 0.00 | 55 | 1014.6 |
| 20260901161107 | 86 | 74 | 9.0 | 12.0 | 0.00 | 0.00 | 0.00 | 56 | 1014.6 |
| 20260901161005 | 86 | 78 | 12.0 | 13.0 | 0.00 | 0.00 | 0.00 | 56 | 1014.6 |
| 20260901160905 | 87 | 70 | 7.0 | 14.0 | 0.00 | 0.00 | 0.00 | 56 | 1014.7 |
| 20260901160806 | 87 | 89 | 6.0 | 14.0 | 0.00 | 0.00 | 0.00 | 56 | 1014.6 |
| 20260901160705 | 87 | 106 | 8.0 | 14.0 | 0.00 | 0.00 | 0.00 | 56 | 1014.6 |
| 20260901160605 | 87 | 78 | 8.0 | 14.0 | 0.00 | 0.00 | 0.00 | 56 | 1014.6 |
| 20260901160507 | 87 | 63 | 7.0 | 14.0 | 0.00 | 0.00 | 0.00 | 56 | 1014.6 |
| 20260901160405 | 87 | 92 | 8.0 | 14.0 | 0.00 | 0.00 | 0.00 | 56 | 1014.6 |
| 20260901160305 | 87 | 58 | 10.0 | 14.0 | 0.00 | 0.00 | 0.00 | 55 | 1014.6 |
| 20260901160207 | 87 | 50 | 8.0 | 14.0 | 0.00 | 0.00 | 0.00 | 55 | 1014.6 |
| 20260901160121 | 87 | 67 | 7.0 | 14.0 | 0.00 | 0.00 | 0.00 | 55 | 1014.6 |
| 20260901160007 | 87 | 19 | 6.0 | 14.0 | 0.00 | 0.00 | 0.00 | 55 | 1014.7 |
| 20260901155906 | 87 | 45 | 6.0 | 13.0 | 0.00 | 0.00 | 0.00 | 54 | 1014.7 |
| 20260901155805 | 87 | 63 | 7.0 | 13.0 | 0.00 | 0.00 | 0.00 | 54 | 1014.7 |
| 20260901155607 | 87 | 55 | 5.0 | 12.0 | 0.00 | 0.00 | 0.00 | 54 | 1014.7 |
| 20260901155505 | 87 | 36 | 6.0 | 12.0 | 0.00 | 0.00 | 0.00 | 55 | 1014.6 |
| 20260901155403 | 87 | 96 | 10.0 | 14.0 | 0.00 | 0.00 | 0.00 | 55 | 1014.6 |
| 20260901155308 | 87 | 76 | 5.0 | 14.0 | 0.00 | 0.00 | 0.00 | 55 | 1014.6 |
| 20260901155104 | 87 | 95 | 5.0 | 14.0 | 0.00 | 0.00 | 0.00 | 55 | 1014.6 |
| 20260901155008 | 87 | 63 | 7.0 | 14.0 | 0.00 | 0.00 | 0.00 | 55 | 1014.6 |
| 20260901154904 | 87 | 73 | 11.0 | 14.0 | 0.00 | 0.00 | 0.00 | 54 | 1014.6 |
| 20260901154803 | 87 | 87 | 5.0 | 14.0 | 0.00 | 0.00 | 0.00 | 55 | 1014.7 |
| 20260901154707 | 87 | 85 | 7.0 | 14.0 | 0.00 | 0.00 | 0.00 | 55 | 1014.7 |
| 20260901154604 | 87 | 113 | 5.0 | 14.0 | 0.00 | 0.00 | 0.00 | 55 | 1014.7 |
| 20260901154505 | 87 | 82 | 9.0 | 14.0 | 0.00 | 0.00 | 0.00 | 55 | 1014.7 |
| 20260901154407 | 87 | 78 | 14.0 | 14.0 | 0.00 | 0.00 | 0.00 | 55 | 1014.7 |
| 20260901154305 | 87 | 73 | 9.0 | 14.0 | 0.00 | 0.00 | 0.00 | 55 | 1014.8 |
| 20260901154205 | 87 | 77 | 10.0 | 14.0 | 0.00 | 0.00 | 0.00 | 55 | 1014.7 |
| 20260901154107 | 87 | 76 | 11.0 | 14.0 | 0.00 | 0.00 | 0.00 | 55 | 1014.7 |
| 20260901154005 | 87 | 74 | 10.0 | 14.0 | 0.00 | 0.00 | 0.00 | 55 | 1014.7 |
| 20260901153905 | 87 | 100 | 9.0 | 14.0 | 0.00 | 0.00 | 0.00 | 55 | 1014.7 |
| 20260901153807 | 87 | 81 | 6.0 | 16.0 | 0.00 | 0.00 | 0.00 | 55 | 1014.7 |
| 20260901153705 | 87 | 64 | 8.0 | 16.0 | 0.00 | 0.00 | 0.00 | 54 | 1014.6 |
| 20260901153605 | 87 | 55 | 10.0 | 16.0 | 0.00 | 0.00 | 0.00 | 54 | 1014.6 |
| 20260901153508 | 87 | 32 | 11.0 | 16.0 | 0.00 | 0.00 | 0.00 | 54 | 1014.6 |
| 20260901153404 | 87 | 39 | 10.0 | 16.0 | 0.00 | 0.00 | 0.00 | 54 | 1014.7 |
| 20260901153304 | 88 | 53 | 8.0 | 16.0 | 0.00 | 0.00 | 0.00 | 54 | 1014.7 |
| 20260901153206 | 88 | 41 | 9.0 | 16.0 | 0.00 | 0.00 | 0.00 | 54 | 1014.6 |
| 20260901153105 | 88 | 43 | 11.0 | 16.0 | 0.00 | 0.00 | 0.00 | 54 | 1014.6 |
| 20260901153005 | 88 | 66 | 10.0 | 16.0 | 0.00 | 0.00 | 0.00 | 53 | 1014.7 |
| 20260901152906 | 88 | 62 | 9.0 | 16.0 | 0.00 | 0.00 | 0.00 | 53 | 1014.6 |
| 20260901152805 | 88 | 46 | 13.0 | 16.0 | 0.00 | 0.00 | 0.00 | 54 | 1014.6 |
| 20260901152704 | 88 | 74 | 9.0 | 17.0 | 0.00 | 0.00 | 0.00 | 54 | 1014.6 |
| 20260901152608 | 88 | 71 | 11.0 | 17.0 | 0.00 | 0.00 | 0.00 | 54 | 1014.6 |
| 20260901152403 | 88 | 78 | 9.0 | 17.0 | 0.00 | 0.00 | 0.00 | 54 | 1014.6 |
| 20260901152307 | 88 | 78 | 12.0 | 17.0 | 0.00 | 0.00 | 0.00 | 54 | 1014.6 |
| 20260901152203 | 88 | 84 | 13.0 | 17.0 | 0.00 | 0.00 | 0.00 | 53 | 1014.6 |
| 20260901152008 | 88 | 45 | 8.0 | 17.0 | 0.00 | 0.00 | 0.00 | 53 | 1014.6 |
| 20260901151904 | 88 | 55 | 7.0 | 17.0 | 0.00 | 0.00 | 0.00 | 54 | 1014.6 |
| 20260901151804 | 88 | 84 | 8.0 | 17.0 | 0.00 | 0.00 | 0.00 | 54 | 1014.6 |
| 20260901151707 | 88 | 80 | 17.0 | 17.0 | 0.00 | 0.00 | 0.00 | 54 | 1014.7 |
| 20260901151604 | 88 | 55 | 9.0 | 16.0 | 0.00 | 0.00 | 0.00 | 54 | 1014.7 |
| 20260901151505 | 88 | 70 | 10.0 | 17.0 | 0.00 | 0.00 | 0.00 | 54 | 1014.7 |
| 20260901151407 | 88 | 72 | 14.0 | 16.0 | 0.00 | 0.00 | 0.00 | 53 | 1014.7 |
| 20260901151203 | 88 | 24 | 8.0 | 16.0 | 0.00 | 0.00 | 0.00 | 54 | 1014.6 |
| 20260901151107 | 88 | 84 | 14.0 | 16.0 | 0.00 | 0.00 | 0.00 | 54 | 1014.6 |
| 20260901151005 | 88 | 38 | 7.0 | 16.0 | 0.00 | 0.00 | 0.00 | 53 | 1014.6 |
| 20260901150903 | 88 | 28 | 8.0 | 16.0 | 0.00 | 0.00 | 0.00 | 53 | 1014.6 |
| 20260901150806 | 88 | 56 | 11.0 | 16.0 | 0.00 | 0.00 | 0.00 | 53 | 1014.6 |
| 20260901150704 | 88 | 5 | 7.0 | 17.0 | 0.00 | 0.00 | 0.00 | 53 | 1014.6 |
| 20260901150603 | 88 | 28 | 10.0 | 17.0 | 0.00 | 0.00 | 0.00 | 53 | 1014.6 |
| 20260901150509 | 88 | 44 | 6.0 | 17.0 | 0.00 | 0.00 | 0.00 | 53 | 1014.6 |
| 20260901150404 | 88 | 59 | 11.0 | 17.0 | 0.00 | 0.00 | 0.00 | 54 | 1014.6 |
| 20260901150207 | 88 | 46 | 12.0 | 16.0 | 0.00 | 0.00 | 0.00 | 54 | 1014.7 |
| 20260901150104 | 88 | 55 | 11.0 | 16.0 | 0.00 | 0.00 | 0.00 | 54 | 1014.6 |
| 20260901150007 | 88 | 33 | 9.0 | 16.0 | 0.00 | 0.00 | 0.00 | 55 | 1014.6 |
| 20260901145907 | 88 | 5 | 6.0 | 16.0 | 0.00 | 0.00 | 0.00 | 54 | 1014.6 |
| 20260901145805 | 88 | 92 | 8.0 | 17.0 | 0.00 | 0.00 | 0.00 | 54 | 1014.6 |
| 20260901145705 | 88 | 51 | 7.0 | 16.0 | 0.00 | 0.00 | 0.00 | 54 | 1014.6 |
| 20260901145606 | 88 | 36 | 10.0 | 16.0 | 0.00 | 0.00 | 0.00 | 54 | 1014.6 |
| 20260901145504 | 88 | 63 | 10.0 | 16.0 | 0.00 | 0.00 | 0.00 | 54 | 1014.6 |
| 20260901145404 | 88 | 36 | 8.0 | 16.0 | 0.00 | 0.00 | 0.00 | 53 | 1014.6 |
| 20260901145307 | 88 | 53 | 11.0 | 16.0 | 0.00 | 0.00 | 0.00 | 53 | 1014.6 |
| 20260901145204 | 88 | 40 | 14.0 | 16.0 | 0.00 | 0.00 | 0.00 | 53 | 1014.6 |
| 20260901145104 | 88 | 29 | 11.0 | 16.0 | 0.00 | 0.00 | 0.00 | 53 | 1014.6 |
| 20260901145008 | 89 | 28 | 15.0 | 16.0 | 0.00 | 0.00 | 0.00 | 53 | 1014.6 |
| 20260901144903 | 89 | 43 | 9.0 | 16.0 | 0.00 | 0.00 | 0.00 | 53 | 1014.6 |
| 20260901144706 | 89 | 25 | 14.0 | 14.0 | 0.00 | 0.00 | 0.00 | 53 | 1014.6 |
| 20260901144604 | 89 | 62 | 13.0 | 14.0 | 0.00 | 0.00 | 0.00 | 53 | 1014.6 |
| 20260901144504 | 89 | 55 | 9.0 | 16.0 | 0.00 | 0.00 | 0.00 | 53 | 1014.6 |
| 20260901144407 | 89 | 42 | 7.0 | 16.0 | 0.00 | 0.00 | 0.00 | 54 | 1014.5 |
| 20260901144304 | 89 | 36 | 6.0 | 16.0 | 0.00 | 0.00 | 0.00 | 53 | 1014.6 |
| 20260901144205 | 89 | 49 | 12.0 | 16.0 | 0.00 | 0.00 | 0.00 | 53 | 1014.5 |
| 20260901144106 | 89 | 65 | 10.0 | 16.0 | 0.00 | 0.00 | 0.00 | 53 | 1014.5 |
| 20260901144004 | 89 | 46 | 11.0 | 17.0 | 0.00 | 0.00 | 0.00 | 54 | 1014.5 |
| 20260901143903 | 89 | 65 | 13.0 | 17.0 | 0.00 | 0.00 | 0.00 | 53 | 1014.5 |
| 20260901143807 | 89 | 73 | 10.0 | 17.0 | 0.00 | 0.00 | 0.00 | 54 | 1014.6 |
| 20260901143703 | 89 | 88 | 10.0 | 17.0 | 0.00 | 0.00 | 0.00 | 53 | 1014.6 |
| 20260901143508 | 89 | 23 | 14.0 | 17.0 | 0.00 | 0.00 | 0.00 | 52 | 1014.6 |
| 20260901143404 | 89 | 78 | 8.0 | 17.0 | 0.00 | 0.00 | 0.00 | 52 | 1014.7 |
| 20260901143304 | 89 | 64 | 10.0 | 17.0 | 0.00 | 0.00 | 0.00 | 52 | 1014.6 |
| 20260901143207 | 89 | 97 | 6.0 | 17.0 | 0.00 | 0.00 | 0.00 | 51 | 1014.7 |
| 20260901143104 | 89 | 61 | 11.0 | 17.0 | 0.00 | 0.00 | 0.00 | 52 | 1014.7 |
| 20260901142907 | 89 | 63 | 8.0 | 13.0 | 0.00 | 0.00 | 0.00 | 51 | 1014.7 |
| 20260901142804 | 89 | 40 | 5.0 | 13.0 | 0.00 | 0.00 | 0.00 | 51 | 1014.7 |
| 20260901142704 | 89 | 43 | 7.0 | 13.0 | 0.00 | 0.00 | 0.00 | 52 | 1014.7 |
| 20260901142606 | 89 | 31 | 8.0 | 14.0 | 0.00 | 0.00 | 0.00 | 51 | 1014.7 |
| 20260901142504 | 89 | 71 | 10.0 | 13.0 | 0.00 | 0.00 | 0.00 | 52 | 1014.7 |
| 20260901142404 | 89 | 59 | 9.0 | 15.0 | 0.00 | 0.00 | 0.00 | 52 | 1014.6 |
| 20260901142307 | 89 | 51 | 12.0 | 15.0 | 0.00 | 0.00 | 0.00 | 51 | 1014.6 |
| 20260901142203 | 89 | 24 | 9.0 | 15.0 | 0.00 | 0.00 | 0.00 | 51 | 1014.6 |
| 20260901142009 | 90 | 58 | 8.0 | 15.0 | 0.00 | 0.00 | 0.00 | 50 | 1014.6 |
| 20260901141707 | 90 | 53 | 8.0 | 15.0 | 0.00 | 0.00 | 0.00 | 51 | 1014.6 |
| 20260901141605 | 90 | 65 | 8.0 | 15.0 | 0.00 | 0.00 | 0.00 | 51 | 1014.6 |
| 20260901141407 | 90 | 48 | 15.0 | 16.0 | 0.00 | 0.00 | 0.00 | 51 | 1014.6 |
| 20260901141203 | 90 | 74 | 11.0 | 15.0 | 0.00 | 0.00 | 0.00 | 53 | 1014.6 |
| 20260901141005 | 90 | 42 | 8.0 | 18.0 | 0.00 | 0.00 | 0.00 | 52 | 1014.6 |
| 20260901140906 | 90 | 101 | 7.0 | 18.0 | 0.00 | 0.00 | 0.00 | 51 | 1014.6 |
| 20260901140807 | 90 | 50 | 12.0 | 18.0 | 0.00 | 0.00 | 0.00 | 52 | 1014.6 |
| 20260901140704 | 90 | 59 | 11.0 | 18.0 | 0.00 | 0.00 | 0.00 | 52 | 1014.5 |
| 20260901140605 | 90 | 84 | 9.0 | 18.0 | 0.00 | 0.00 | 0.00 | 53 | 1014.5 |
| 20260901140508 | 90 | 74 | 13.0 | 18.0 | 0.00 | 0.00 | 0.00 | 53 | 1014.6 |
| 20260901140403 | 89 | 62 | 9.0 | 18.0 | 0.00 | 0.00 | 0.00 | 54 | 1014.6 |
| 20260901140306 | 89 | 76 | 10.0 | 18.0 | 0.00 | 0.00 | 0.00 | 54 | 1014.6 |
| 20260901140209 | 89 | 82 | 10.0 | 18.0 | 0.00 | 0.00 | 0.00 | 53 | 1014.6 |
| 20260901140120 | 89 | 51 | 9.0 | 18.0 | 0.00 | 0.00 | 0.00 | 52 | 1014.6 |
| 20260901140008 | 89 | 78 | 12.0 | 18.0 | 0.00 | 0.00 | 0.00 | 52 | 1014.6 |
| 20260901135906 | 89 | 40 | 13.0 | 16.0 | 0.00 | 0.00 | 0.00 | 52 | 1014.5 |
| 20260901135805 | 89 | 50 | 10.0 | 17.0 | 0.00 | 0.00 | 0.00 | 52 | 1014.5 |
| 20260901135703 | 89 | 55 | 13.0 | 17.0 | 0.00 | 0.00 | 0.00 | 54 | 1014.6 |
| 20260901135608 | 89 | 77 | 11.0 | 17.0 | 0.00 | 0.00 | 0.00 | 54 | 1014.6 |
| 20260901135504 | 89 | 68 | 11.0 | 17.0 | 0.00 | 0.00 | 0.00 | 53 | 1014.6 |
| 20260901135404 | 89 | 67 | 14.0 | 17.0 | 0.00 | 0.00 | 0.00 | 53 | 1014.7 |
| 20260901135306 | 89 | 44 | 8.0 | 17.0 | 0.00 | 0.00 | 0.00 | 53 | 1014.7 |
| 20260901135204 | 89 | 34 | 8.0 | 17.0 | 0.00 | 0.00 | 0.00 | 53 | 1014.6 |
| 20260901135105 | 89 | 20 | 9.0 | 17.0 | 0.00 | 0.00 | 0.00 | 53 | 1014.6 |
| 20260901134904 | 89 | 22 | 12.0 | 17.0 | 0.00 | 0.00 | 0.00 | 52 | 1014.5 |
| 20260901134805 | 90 | 39 | 12.0 | 15.0 | 0.00 | 0.00 | 0.00 | 53 | 1014.5 |
| 20260901134706 | 90 | 38 | 11.0 | 15.0 | 0.00 | 0.00 | 0.00 | 53 | 1014.6 |
| 20260901134604 | 90 | 44 | 9.0 | 15.0 | 0.00 | 0.00 | 0.00 | 53 | 1014.6 |
| 20260901134505 | 90 | 26 | 8.0 | 15.0 | 0.00 | 0.00 | 0.00 | 53 | 1014.5 |
| 20260901134406 | 90 | 49 | 9.0 | 17.0 | 0.00 | 0.00 | 0.00 | 53 | 1014.6 |
| 20260901134304 | 90 | 32 | 8.0 | 17.0 | 0.00 | 0.00 | 0.00 | 53 | 1014.5 |
| 20260901134204 | 89 | 38 | 11.0 | 17.0 | 0.00 | 0.00 | 0.00 | 54 | 1014.5 |
| 20260901134106 | 89 | 31 | 6.0 | 17.0 | 0.00 | 0.00 | 0.00 | 54 | 1014.5 |
| 20260901134004 | 89 | 26 | 10.0 | 17.0 | 0.00 | 0.00 | 0.00 | 53 | 1014.6 |
| 20260901133904 | 90 | 38 | 9.0 | 17.0 | 0.00 | 0.00 | 0.00 | 53 | 1014.5 |
| 20260901133807 | 90 | 34 | 10.0 | 17.0 | 0.00 | 0.00 | 0.00 | 53 | 1014.6 |
| 20260901133603 | 90 | 48 | 6.0 | 17.0 | 0.00 | 0.00 | 0.00 | 54 | 1014.6 |
| 20260901133508 | 90 | 69 | 11.0 | 17.0 | 0.00 | 0.00 | 0.00 | 54 | 1014.5 |
| 20260901133406 | 90 | 71 | 14.0 | 17.0 | 0.00 | 0.00 | 0.00 | 54 | 1014.5 |
| 20260901133304 | 90 | 73 | 15.0 | 15.0 | 0.00 | 0.00 | 0.00 | 54 | 1014.5 |
| 20260901133206 | 90 | 48 | 11.0 | 15.0 | 0.00 | 0.00 | 0.00 | 54 | 1014.6 |
| 20260901133105 | 90 | 65 | 10.0 | 15.0 | 0.00 | 0.00 | 0.00 | 53 | 1014.5 |
| 20260901132906 | 90 | 53 | 9.0 | 15.0 | 0.00 | 0.00 | 0.00 | 54 | 1014.5 |
| 20260901132803 | 90 | 60 | 9.0 | 15.0 | 0.00 | 0.00 | 0.00 | 55 | 1014.6 |
| 20260901132704 | 90 | 84 | 6.0 | 15.0 | 0.00 | 0.00 | 0.00 | 54 | 1014.6 |
| 20260901132609 | 90 | 55 | 9.0 | 15.0 | 0.00 | 0.00 | 0.00 | 54 | 1014.5 |
| 20260901132504 | 90 | 70 | 13.0 | 16.0 | 0.00 | 0.00 | 0.00 | 53 | 1014.5 |
| 20260901132404 | 90 | 31 | 7.0 | 15.0 | 0.00 | 0.00 | 0.00 | 54 | 1014.5 |
| 20260901132307 | 90 | 55 | 8.0 | 15.0 | 0.00 | 0.00 | 0.00 | 54 | 1014.6 |
| 20260901132205 | 90 | 42 | 12.0 | 15.0 | 0.00 | 0.00 | 0.00 | 54 | 1014.5 |
| 20260901132103 | 90 | 51 | 7.0 | 17.0 | 0.00 | 0.00 | 0.00 | 54 | 1014.5 |
| 20260901132009 | 90 | 63 | 12.0 | 17.0 | 0.00 | 0.00 | 0.00 | 55 | 1014.5 |
| 20260901131904 | 89 | 64 | 10.0 | 17.0 | 0.00 | 0.00 | 0.00 | 56 | 1014.6 |
| 20260901131803 | 89 | 89 | 7.0 | 17.0 | 0.00 | 0.00 | 0.00 | 55 | 1014.5 |
| 20260901131707 | 89 | 42 | 4.0 | 17.0 | 0.00 | 0.00 | 0.00 | 54 | 1014.6 |
| 20260901131603 | 90 | 63 | 7.0 | 17.0 | 0.00 | 0.00 | 0.00 | 53 | 1014.6 |
| 20260901131504 | 90 | 36 | 9.0 | 17.0 | 0.00 | 0.00 | 0.00 | 53 | 1014.7 |
| 20260901131106 | 90 | 33 | 16.0 | 17.0 | 0.00 | 0.00 | 0.00 | 53 | 1014.6 |
| 20260901131006 | 90 | 61 | 4.0 | 16.0 | 0.00 | 0.00 | 0.00 | 55 | 1014.6 |
| 20260901130806 | 90 | 20 | 15.0 | 16.0 | 0.00 | 0.00 | 0.00 | 54 | 1014.6 |
| 20260901130705 | 90 | 55 | 4.0 | 17.0 | 0.00 | 0.00 | 0.00 | 55 | 1014.7 |
| 20260901130509 | 90 | 44 | 8.0 | 17.0 | 0.00 | 0.00 | 0.00 | 54 | 1014.7 |
| 20260901130404 | 90 | 58 | 7.0 | 17.0 | 0.00 | 0.00 | 0.00 | 54 | 1014.7 |
| 20260901130305 | 90 | 62 | 4.0 | 17.0 | 0.00 | 0.00 | 0.00 | 54 | 1014.7 |
| 20260901130206 | 90 | 52 | 8.0 | 17.0 | 0.00 | 0.00 | 0.00 | 56 | 1014.7 |
| 20260901130105 | 90 | 65 | 8.0 | 17.0 | 0.00 | 0.00 | 0.00 | 54 | 1014.7 |
| 20260901130007 | 90 | 48 | 3.0 | 17.0 | 0.00 | 0.00 | 0.00 | 54 | 1014.7 |
| 20260901125906 | 90 | 30 | 10.0 | 17.0 | 0.00 | 0.00 | 0.00 | 53 | 1014.7 |
| 20260901125804 | 90 | 30 | 13.0 | 17.0 | 0.00 | 0.00 | 0.00 | 53 | 1014.6 |
| 20260901125607 | 91 | 24 | 12.0 | 16.0 | 0.00 | 0.00 | 0.00 | 52 | 1014.7 |
| 20260901125504 | 91 | 51 | 8.0 | 16.0 | 0.00 | 0.00 | 0.00 | 52 | 1014.8 |
| 20260901125309 | 91 | 44 | 10.0 | 16.0 | 0.00 | 0.00 | 0.00 | 51 | 1014.8 |
| 20260901125204 | 91 | 54 | 10.0 | 16.0 | 0.00 | 0.00 | 0.00 | 52 | 1014.7 |
| 20260901125104 | 91 | 37 | 11.0 | 16.0 | 0.00 | 0.00 | 0.00 | 52 | 1014.8 |
| 20260901125009 | 91 | 52 | 4.0 | 16.0 | 0.00 | 0.00 | 0.00 | 52 | 1014.8 |
| 20260901124904 | 91 | 65 | 9.0 | 16.0 | 0.00 | 0.00 | 0.00 | 53 | 1014.8 |
| 20260901124804 | 91 | 58 | 9.0 | 16.0 | 0.00 | 0.00 | 0.00 | 54 | 1014.7 |
| 20260901124708 | 91 | 69 | 10.0 | 14.0 | 0.00 | 0.00 | 0.00 | 55 | 1014.8 |
| 20260901124605 | 91 | 82 | 9.0 | 13.0 | 0.00 | 0.00 | 0.00 | 55 | 1014.7 |
| 20260901124505 | 91 | 71 | 12.0 | 13.0 | 0.00 | 0.00 | 0.00 | 53 | 1014.7 |
| 20260901124406 | 91 | 80 | 9.0 | 13.0 | 0.00 | 0.00 | 0.00 | 52 | 1014.8 |
| 20260901124303 | 91 | 63 | 9.0 | 13.0 | 0.00 | 0.00 | 0.00 | 51 | 1014.8 |
| 20260901124204 | 91 | 43 | 5.0 | 13.0 | 0.00 | 0.00 | 0.00 | 51 | 1014.8 |
| 20260901124107 | 91 | 47 | 10.0 | 13.0 | 0.00 | 0.00 | 0.00 | 51 | 1014.8 |
| 20260901124006 | 91 | 72 | 10.0 | 13.0 | 0.00 | 0.00 | 0.00 | 51 | 1014.8 |
| 20260901123905 | 91 | 54 | 9.0 | 13.0 | 0.00 | 0.00 | 0.00 | 52 | 1014.8 |
| 20260901123807 | 91 | 49 | 8.0 | 15.0 | 0.00 | 0.00 | 0.00 | 51 | 1014.8 |
| 20260901123705 | 91 | 34 | 9.0 | 15.0 | 0.00 | 0.00 | 0.00 | 52 | 1014.8 |
| 20260901123507 | 91 | 40 | 10.0 | 15.0 | 0.00 | 0.00 | 0.00 | 53 | 1014.8 |
| 20260901123404 | 91 | 49 | 6.0 | 15.0 | 0.00 | 0.00 | 0.00 | 53 | 1014.8 |
| 20260901123304 | 90 | 34 | 11.0 | 15.0 | 0.00 | 0.00 | 0.00 | 53 | 1014.8 |
| 20260901122703 | 90 | 111 | 7.0 | 15.0 | 0.00 | 0.00 | 0.00 | 52 | 1014.8 |
| 20260901122505 | 90 | 42 | 7.0 | 15.0 | 0.00 | 0.00 | 0.00 | 54 | 1014.8 |
| 20260901122404 | 90 | 76 | 9.0 | 15.0 | 0.00 | 0.00 | 0.00 | 52 | 1014.8 |
| 20260901122306 | 91 | 52 | 8.0 | 15.0 | 0.00 | 0.00 | 0.00 | 51 | 1014.8 |
| 20260901122204 | 91 | 48 | 8.0 | 15.0 | 0.00 | 0.00 | 0.00 | 51 | 1014.7 |
| 20260901122104 | 91 | 21 | 7.0 | 15.0 | 0.00 | 0.00 | 0.00 | 52 | 1014.8 |
| 20260901122007 | 91 | 41 | 7.0 | 15.0 | 0.00 | 0.00 | 0.00 | 53 | 1014.8 |
| 20260901121904 | 91 | 57 | 9.0 | 15.0 | 0.00 | 0.00 | 0.00 | 52 | 1014.7 |
| 20260901121804 | 91 | 40 | 11.0 | 15.0 | 0.00 | 0.00 | 0.00 | 53 | 1014.7 |
| 20260901121706 | 91 | 30 | 11.0 | 15.0 | 0.00 | 0.00 | 0.00 | 52 | 1014.8 |
| 20260901121604 | 91 | 43 | 6.0 | 16.0 | 0.00 | 0.00 | 0.00 | 53 | 1014.8 |
| 20260901121504 | 91 | 54 | 6.0 | 16.0 | 0.00 | 0.00 | 0.00 | 52 | 1014.8 |
| 20260901121304 | 91 | 52 | 8.0 | 17.0 | 0.00 | 0.00 | 0.00 | 53 | 1014.8 |
| 20260901121203 | 91 | 72 | 10.0 | 17.0 | 0.00 | 0.00 | 0.00 | 53 | 1014.8 |
| 20260901121106 | 91 | 78 | 12.0 | 17.0 | 0.00 | 0.00 | 0.00 | 52 | 1014.8 |
| 20260901121005 | 91 | 37 | 11.0 | 17.0 | 0.00 | 0.00 | 0.00 | 52 | 1014.8 |
| 20260901120704 | 91 | 82 | 11.0 | 17.0 | 0.00 | 0.00 | 0.00 | 51 | 1014.9 |
| 20260901120603 | 91 | 70 | 9.0 | 17.0 | 0.00 | 0.00 | 0.00 | 52 | 1014.9 |
| 20260901120403 | 91 | 81 | 9.0 | 14.0 | 0.00 | 0.00 | 0.00 | 50 | 1014.8 |
| 20260901120206 | 91 | 62 | 8.0 | 14.0 | 0.00 | 0.00 | 0.00 | 49 | 1014.8 |
| 20260901120131 | 91 | 30 | 10.0 | 14.0 | 0.00 | 0.00 | 0.00 | 51 | 1014.8 |
| 20260901115908 | 91 | 23 | 9.0 | 14.0 | 0.00 | 0.00 | 0.00 | 50 | 1014.9 |
| 20260901115804 | 91 | 15 | 10.0 | 14.0 | 0.00 | 0.00 | 0.00 | 49 | 1014.8 |
| 20260901115606 | 91 | 25 | 11.0 | 14.0 | 0.00 | 0.00 | 0.00 | 48 | 1014.8 |
| 20260901115504 | 91 | 23 | 10.0 | 14.0 | 0.00 | 0.00 | 0.00 | 47 | 1014.9 |
| 20260901115403 | 91 | 49 | 12.0 | 13.0 | 0.00 | 0.00 | 0.00 | 47 | 1014.9 |
| 20260901115307 | 91 | 23 | 9.0 | 12.0 | 0.00 | 0.00 | 0.00 | 46 | 1014.9 |
| 20260901115203 | 92 | 54 | 10.0 | 12.0 | 0.00 | 0.00 | 0.00 | 46 | 1014.9 |
| 20260901115103 | 92 | 30 | 8.0 | 12.0 | 0.00 | 0.00 | 0.00 | 47 | 1014.9 |
| 20260901114903 | 91 | 75 | 9.0 | 12.0 | 0.00 | 0.00 | 0.00 | 47 | 1014.9 |
| 20260901114805 | 91 | 103 | 8.0 | 13.0 | 0.00 | 0.00 | 0.00 | 47 | 1014.9 |
| 20260901114707 | 91 | 64 | 10.0 | 13.0 | 0.00 | 0.00 | 0.00 | 46 | 1014.9 |
| 20260901114603 | 91 | 85 | 8.0 | 10.0 | 0.00 | 0.00 | 0.00 | 45 | 1014.9 |
| 20260901114504 | 91 | 56 | 6.0 | 10.0 | 0.00 | 0.00 | 0.00 | 47 | 1014.9 |
| 20260901114408 | 91 | 62 | 5.0 | 10.0 | 0.00 | 0.00 | 0.00 | 45 | 1014.9 |
| 20260901114106 | 91 | 90 | 5.0 | 10.0 | 0.00 | 0.00 | 0.00 | 44 | 1014.9 |
| 20260901114004 | 91 | 80 | 1.0 | 10.0 | 0.00 | 0.00 | 0.00 | 46 | 1014.9 |
| 20260901113903 | 91 | 13 | 4.0 | 10.0 | 0.00 | 0.00 | 0.00 | 45 | 1014.9 |
| 20260901113806 | 91 | 28 | 5.0 | 11.0 | 0.00 | 0.00 | 0.00 | 45 | 1014.9 |
| 20260901113703 | 90 | 18 | 9.0 | 11.0 | 0.00 | 0.00 | 0.00 | 47 | 1014.9 |
| 20260901113604 | 90 | 66 | 3.0 | 11.0 | 0.00 | 0.00 | 0.00 | 46 | 1014.9 |
| 20260901113509 | 90 | 20 | 7.0 | 11.0 | 0.00 | 0.00 | 0.00 | 46 | 1014.9 |
| 20260901113404 | 90 | 128 | 4.0 | 11.0 | 0.00 | 0.00 | 0.00 | 46 | 1014.9 |
| 20260901113206 | 90 | 98 | 7.0 | 11.0 | 0.00 | 0.00 | 0.00 | 46 | 1014.9 |
| 20260901113103 | 90 | 106 | 7.0 | 11.0 | 0.00 | 0.00 | 0.00 | 45 | 1014.9 |